This site uses a module created by best online poker sites.

BSB police reports endind November 9, 2018

"11/08/2018","00:15","218CR0028845","ASSIST OTHER AGENCY","ASSIST OTHER AGENCY","I90 MM 211 EB","",""
"11/08/2018","00:33","218CR0028846","DISTURBANCE","DISTURBANCE","1125 S MAIN 3RD FLOOR","",""
"11/08/2018","01:51","218CR0028847","HARASSMENT","HARASSMENT","1125 S MAIN #315","",""
"11/08/2018","02:04","218CR0028848","WELFARE CHECK","WELFARE CHECK","710 SILVERBOW HOMES","",""
"11/08/2018","02:50","218CR0028849","CITIZEN AID","CITIZEN AID","400 S CLARK ST","",""
"11/08/2018","03:18","218CR0028850","DISTURBANCE-NOISE","DISTURBANCE-NOISE","2600 BLK HARVARD","",""
"11/08/2018","03:50","218CR0028851","DISTURBANCE","DISTURBANCE","840 W SILVER","",""
"11/08/2018","03:54","218CR0028852","SUSPICIOUS ACTIVITY","SUSPICIOUS ACTIVITY","3827 HARRISON/SPLASH N DASH","",""
"11/08/2018","05:52","218CR0028853","T/S","T/S","2900 BLK HARRISON","",""
"11/08/2018","06:27","218CR0028854","DETENTION BUSINESS","DETENTION BUSINESS","************","",""
"11/08/2018","06:30","218CR0028855","VANDALISM/CRIMINAL MISCHIEF","VANDALISM/CRIMINAL MISCHIEF","1736 LONGFELLOW #2","",""
"11/08/2018","07:16","218CR0028856","ACCIDENT","ACCIDENT","LEXINGTON AVE BRIDGE","",""
"11/08/2018","07:43","218CR0028857","SUSPICIOUS ACTIVITY","SUSPICIOUS ACTIVITY","700 BLK W BROADWAY","",""
"11/08/2018","07:48","218CR0028858","ALARM - BURGLARY","ALARM - BURGLARY","************","",""
"11/08/2018","07:54","218CR0028859","HIT AND RUN","HIT AND RUN","1130 MARYLAND","",""
"11/08/2018","07:56","218CR0028860","BUSINESS CHECK","BUSINESS CHECK","58 W PARK","",""
"11/08/2018","07:57","218CR0028861","ACCIDENT","ACCIDENT","OREGON AVE BRIDGE","",""
"11/08/2018","08:12","218CR0028862","ACCIDENT-MHP","ACCIDENT-MHP","I90 AND I15 NISSLER JUNCTION","",""
"11/08/2018","08:38","218CR0028863","WELFARE CHECK","WELFARE CHECK","2600 GRAND AVE","",""
"11/08/2018","08:42","218CR0028864","MEDICAL - EMERGENCY","MEDICAL - EMERGENCY","100 GARDENS WAY","",""
"11/08/2018","08:43","218CR0028865","DOMESTIC ABUSE","PFMA - MINOR INJ/PHYSICAL CONT","1159 W GOLD","",""
"11/08/2018","08:48","218CR0028866","DETENTION BUSINESS","DETENTION BUSINESS","************","",""
"11/08/2018","08:54","218CR0028867","MEDICAL - EMERGENCY","MEDICAL - EMERGENCY","2300 MASSACHUSETTS","",""
"11/08/2018","08:55","218CR0028868","MEDICAL - EMERGENCY","MEDICAL - EMERGENCY","","",""
"11/08/2018","09:00","218CR0028869","CITIZEN AID","CITIZEN AID","628 1/2 W GRANITE","",""
"11/08/2018","09:03","218CR0028870","ASSAULT","ASSAULT, SIMPLE","246 E MERCURY ST","ARREST(s) MADE",""
"11/08/2018","09:19","218CR0028871","ACCIDENT","ACCIDENT","GRANITE ST AND HENRY ST","",""
"11/08/2018","09:35","218CR0028872","CIVIL STANDBY","CIVIL STANDBY","2315 S DRIVE","",""
"11/08/2018","09:48","218CR0028873","ACCIDENT- INJURY(MHP)","ACCIDENT- INJURY(MHP)","I90 MM219 WB","",""
"11/08/2018","09:52","218CR0028875","DETENTION BUSINESS","DETENTION BUSINESS","************","",""
"11/08/2018","09:52","218CR0028874","ALARM - FIRE","ALARM - FIRE","131 S WYOMING","",""
"11/08/2018","10:10","218CR0028876","CIVIL PAPER SERVICE","CIVIL PAPER SERVICE","315 S JACKSON","",""
"11/08/2018","10:10","218CR0028877","LED BUSINESS","LED BUSINESS","155 W GRANITE","",""
"11/08/2018","10:19","218CR0028878","BUSINESS CHECK","BUSINESS CHECK","58 W PARK ST PARKING GARAGE","",""
"11/08/2018","10:21","218CR0028879","JUVENILE MISC","JUVENILE MISC","************","",""
"11/08/2018","10:23","218CR0028880","JUVENILE RUNAWAY","UNGOVERNABLE JUVENILE","23 E LAPLATTE ST","",""
"11/08/2018","10:26","218CR0028881","CITIZEN AID","CITIZEN AID","DAKOTA AND SILVER","",""
"11/08/2018","10:45","218CR0028882","ASSIST OTHER AGENCY","ASSIST OTHER AGENCY","MM234 I90 WB","",""
"11/08/2018","10:53","218CR0028883","CITIZEN AID","CITIZEN AID","665 S WASHINGTON","",""
"11/08/2018","11:08","218CR0028884","JUVENILE MISC","JUVENILE MISC","************","",""
"11/08/2018","11:14","218CR0028885","ACCIDENT","STOP SIGN VIOLATION","COBBAN ST AND OREGON AVE","",""
"11/08/2018","11:16","218CR0028886","WELFARE CHECK","WELFARE CHECK","122005 NISSLER RD","",""
"11/08/2018","11:58","218CR0028887","FRAUD","FRAUD","2065 CAROLINA AV","",""
"11/08/2018","12:04","218CR0028888","CIVIL PAPER SERVICE","CIVIL PAPER SERVICE","1325 KAW APT A","",""
"11/08/2018","12:11","218CR0028889","WANTED PERSON","WANTED PERSON","************","",""
"11/08/2018","12:12","218CR0028890","SUICIDE ATTEMPT/THREAT","SUICIDE ATTEMPT/THREAT","************","",""
"11/08/2018","12:15","218CR0028891","WELFARE CHECK","WELFARE CHECK","518 N MAIN","",""
"11/08/2018","12:28","218CR0028892","ACCIDENT","ACCIDENT","DEWEY AND HILL","",""
"11/08/2018","12:52","218CR0028893","ACCIDENT - INJURY","ACCIDENT - INJURY","I90 234 EB","",""
"11/08/2018","13:04","218CR0028894","ASSIST OTHER AGENCY","ASSIST OTHER AGENCY","I90 MM 233 EB","",""
"11/08/2018","13:07","218CR0028895","STOLEN VEHICLE","STOLEN VEHICLE","155 W QUARTZ","",""
"11/08/2018","13:09","218CR0028896","DETENTION BUSINESS","DETENTION BUSINESS","************","",""
"11/08/2018","13:10","218CR0028897","BUSINESS CHECK","BUSINESS CHECK","3544 HARRISON AVE","",""
"11/08/2018","13:13","218CR0028898","LED BUSINESS","LED BUSINESS","401 S WYOMING ST","",""
"11/08/2018","13:20","218CR0028899","DETENTION BUSINESS","DETENTION BUSINESS","************","",""
"11/08/2018","13:25","218CR0028900","SUSPICIOUS ACTIVITY","POSSESS DRUG PARAPHERNALIA","3700 HARRISON AVE","ARREST(s) MADE",""
"11/08/2018","13:55","218CR0028901","JUVENILE MISC","JUVENILE MISC","************","",""
"11/08/2018","13:58","218CR0028902","WELFARE CHECK","BURGLARY, RESIDENCE","2700 ABERDEEN ST","",""
"11/08/2018","14:14","218CR0028903","ACCIDENT","DRIVE WHILE SUSP. OR REVOKED","2500 BLK OF WALNUT","ARREST(s) MADE",""
"11/08/2018","14:15","218CR0028904","ASSIST OTHER AGENCY","ASSIST OTHER AGENCY","I90 MM 234 EBND","",""
"11/08/2018","14:17","218CR0028905","INFORMATION ONLY","INFORMATION ONLY","1122 LEWISHON","",""
"11/08/2018","14:17","218CR0028906","BURGLARY","BURGLARY","1350 HOLMES","",""
"11/08/2018","14:46","218CR0028907","CIVIL STANDBY","CIVIL STANDBY","50 W BROADWAY#502","",""
"11/08/2018","14:47","218CR0028908","WANTED PERSON","POSSESS DRUG PARAPHERNALIA","1636 LOWELL","ARREST(s) MADE",""
"11/08/2018","14:52","218CR0028909","THEFT","THEFT","225 N ALASKA","",""
"11/08/2018","15:00","218CR0028910","DETENTION BUSINESS","DETENTION BUSINESS","************","",""
"11/08/2018","15:02","218CR0028911","CIVIL PAPER SERVICE","CIVIL PAPER SERVICE","50 W BROADWAY ST #202","",""
"11/08/2018","15:03","218CR0028912","ASSIST OTHER AGENCY","ASSIST OTHER AGENCY","I90 MM 235 EBND","",""
"11/08/2018","15:20","218CR0028913","JUVENILE MISC","JUVENILE MISC","************","",""
"11/08/2018","15:25","218CR0028914","WELFARE CHECK","WELFARE CHECK","220 N WYOMING ST #224","",""
"11/08/2018","15:34","218CR0028915","WELFARE CHECK","WELFARE CHECK","2114 PINE","",""
"11/08/2018","15:36","218CR0028916","ALARM - BURGLARY","ALARM - BURGLARY","************","",""
"11/08/2018","15:45","218CR0028917","MEDICAL - EMERGENCY","MEDICAL - EMERGENCY","603 SLALOM","",""
"11/08/2018","15:53","218CR0028918","ANIMAL COMPLAINT","ANIMAL COMPLAINT","BERKELEY PIT VIEWING STAND","",""
"11/08/2018","15:55","218CR0028919","ASSIST OTHER AGENCY","ASSIST OTHER AGENCY","I15 MM 113 SBND","",""
"11/08/2018","16:00","218CR0028920","LED BUSINESS","LED BUSINESS","155 W QUARTZ","",""
"11/08/2018","16:19","218CR0028921","MEDICAL - EMERGENCY","MEDICAL - EMERGENCY","1 E LA PLATTE","",""
"11/08/2018","16:28","218CR0028922","ANIMAL COMPLAINT","ANIMAL COMPLAINT","1014 W PARK","",""
"11/08/2018","16:34","218CR0028923","HARASSMENT","HARASSMENT","2609 HARRISON","",""
"11/08/2018","16:47","218CR0028924","DETENTION BUSINESS","DETENTION BUSINESS","************","",""
"11/08/2018","16:57","218CR0028925","ALL OTHER","ALL OTHER","1125 S MAIN ST","",""
"11/08/2018","17:05","218CR0028926","LOST OR STOLEN PROPERTY","LOST OR STOLEN PROPERTY","2500 MASSACHUSETTES","",""
"11/08/2018","17:09","218CR0028927","ALL OTHER","ALL OTHER","2119 JOHNS AVE","",""
"11/08/2018","17:14","218CR0028928","UNKNOWN PROBLEM","UNKNOWN PROBLEM","932 S UTAH","",""
"11/08/2018","17:19","218CR0028929","THEFT","THEFT","3541 HARRISON AVE","",""
"11/08/2018","17:37","218CR0028930","ASSIST OTHER AGENCY","ASSIST OTHER AGENCY","I90 MM 237 EBND","",""
"11/08/2018","17:55","218CR0028931","ALARM - MEDICAL","ALARM - MEDICAL","************","",""
"11/08/2018","18:42","218CR0028932","UNWANTED PERSON","UNWANTED PERSON","************","",""
"11/08/2018","19:02","218CR0028933","JUVENILE MISC","JUVENILE MISC","************","",""
"11/08/2018","19:16","218CR0028934","BUSINESS CHECK","BUSINESS CHECK","HARRISON AT MAGIC DIAMOND CASI","",""
"11/08/2018","20:16","218CR0028935","SUSPICIOUS ACTIVITY","SUSPICIOUS ACTIVITY","BERKLEY PIT VEIWING","",""
"11/08/2018","20:23","218CR0028936","SUSPICIOUS ACTIVITY","SUSPICIOUS ACTIVITY","3901 HARRISON AVE","",""
"11/08/2018","20:44","218CR0028937","ASSIST OTHER AGENCY","ASSIST OTHER AGENCY","I15 MM112","",""
"11/08/2018","20:52","218CR0028938","SUSPICIOUS ACTIVITY","SUSPICIOUS ACTIVITY","2900 HARRISON AVE","",""
"11/08/2018","21:37","218CR0028939","STOLEN VEHICLE","MOTOR VEHICLE THEFT","500 S EMMETT","",""
"11/08/2018","21:51","218CR0028940","SUSPICIOUS ACTIVITY","SUSPICIOUS ACTIVITY","1001 EMPIRE ST","",""
"11/08/2018","22:02","218CR0028941","ALL OTHER","ALL OTHER","654 S IDAHO","",""
"11/08/2018","22:18","218CR0028942","ALL OTHER","POSSESSION OF DANGEROUS DRUGS","122001 W BROWNS GULCH RD","ARREST(s) MADE",""
"11/08/2018","23:09","218CR0028943","SUSPICIOUS ACTIVITY","SUSPICIOUS ACTIVITY","2930 EAGLE","",""
"11/08/2018","23:46","218CR0028944","FIRE - STRUCTURE","FIRE - STRUCTURE","915 W PARK ST","",""
"11/09/2018","00:08","218CR0028945","UNWANTED PERSON","UNWANTED PERSON","************","",""
"11/09/2018","00:44","218CR0028946","BUSINESS CHECK","BUSINESS CHECK","1370 HARRISON","",""
"11/09/2018","00:53","218CR0028947","SUSPICIOUS ACTIVITY","SUSPICIOUS ACTIVITY","932 WAKASHA # C","",""
"11/09/2018","01:50","218CR0028948","SUSPICIOUS ACTIVITY","SUSPICIOUS ACTIVITY","3235 HARRISON AVE","",""
"11/09/2018","02:34","218CR0028949","BUSINESS CHECK","BUSINESS CHECK","531 S MONTANA","",""
"11/09/2018","03:13","218CR0028950","ALARM - BURGLARY","ALARM - BURGLARY","************","",""
"11/09/2018","04:46","218CR0028951","SUSPICIOUS ACTIVITY","SUSPICIOUS ACTIVITY","3132 KEOKUK","",""
"11/09/2018","07:33","218CR0028952","TRAFFIC","TRAFFIC","MONTANA ST AND ROWE RD","",""
"11/09/2018","07:57","218CR0028953","CIVIL PAPER SERVICE","CIVIL PAPER SERVICE","1228 RACCOON WAY","",""
"11/09/2018","07:58","218CR0028954","CHILD ABUSE","CHILD ABUSE","************","",""
 

BSB police report for November 8, 2018

"11/07/2018","00:04","218CR0028727","WELFARE CHECK","WELFARE CHECK","450 LUPINE LN","",""
"11/07/2018","00:17","218CR0028728","MEDICAL - EMERGENCY","MEDICAL - EMERGENCY","3901 HARRISON WALMART","",""
"11/07/2018","00:59","218CR0028729","T/S","T/S","HARRISON AND B ST","",""
"11/07/2018","01:27","218CR0028730","ATL","ATL","MAIN AND PLATINUM","",""
"11/07/2018","02:17","218CR0028731","BUSINESS CHECK","BUSINESS CHECK","531 S MONTANA TOWN PUMP","",""
"11/07/2018","02:31","218CR0028732","SUSPICIOUS ACTIVITY","SUSPICIOUS ACTIVITY","400 BLK S DAKOTA SST","",""
"11/07/2018","03:03","218CR0028733","STOLEN VEHICLE","STOLEN VEHICLE","5100 WARREN AVE","",""
"11/07/2018","03:07","218CR0028734","DISTURBANCE","AGGRAVATED BURGLARY","16 W GALENA","",""
"11/07/2018","03:30","218CR0028735","WELFARE CHECK","WELFARE CHECK","1021 GAYLORD","",""
"11/07/2018","04:09","218CR0028736","ALARM - BURGLARY","ALARM - BURGLARY","************","",""
"11/07/2018","04:49","218CR0028737","MEDICAL - EMERGENCY","MEDICAL - EMERGENCY","1000 GRIZZLY TRAIL TOWN PUMP","",""
"11/07/2018","04:56","218CR0028738","T/S","T/S","E ALUMINUM AND ARIZONA","",""
"11/07/2018","06:52","218CR0028740","T/S","T/S @ MONTANA AND PLATINUM","MONTANA AND PLATINUM","",""
"11/07/2018","07:12","218CR0028741","MEDICAL - EMERGENCY","MEDICAL - EMERGENCY","155 W QUARTZ","",""
"11/07/2018","07:27","218CR0028742","T/S","T/S @ MONTANA AND PLATINUM","MONTANA AND PLATINUM","",""
"11/07/2018","07:49","218CR0028743","T/S","T/S @ MONTANA AND SECOND","MONTANA AND SECOND","",""
"11/07/2018","07:59","218CR0028744","WELFARE CHECK","WELFARE CHECK","1706 HOBSON","",""
"11/07/2018","08:02","218CR0028745","T/S","T/S @ GOLD AND IDAHO","GOLD AND IDAHO","",""
"11/07/2018","08:27","218CR0028746","LED BUSINESS","LED BUSINESS","155 W GRANITE ST","",""
"11/07/2018","08:28","218CR0028747","T/S","T/S @ GOLD AND DAKOTA","GOLD AND DAKOTA","",""
"11/07/2018","08:44","218CR0028748","CIVIL PAPER SERVICE","CIVIL PAPER SERVICE","315 S JACKSON","",""
"11/07/2018","08:47","218CR0028749","T/S","T/S @ MONTANA AND PLATINUM","MONTANA AND PLATINUM","",""
"11/07/2018","08:48","218CR0028750","CIVIL PAPER SERVICE","CIVIL PAPER SERVICE","208 N CLARK","",""
"11/07/2018","08:53","218CR0028751","T/S","T/S @ MONTANA ST AND ALUMINUM ST","MONTANA ST AND ALUMINUM ST","",""
"11/07/2018","08:54","218CR0028752","T/S","T/S","ELIZABETH WARREN AND HOWARD","",""
"11/07/2018","08:54","218CR0028753","CIVIL PAPER SERVICE","CIVIL PAPER SERVICE","2900 ARGYLE","",""
"11/07/2018","08:57","218CR0028754","DETENTION BUSINESS","DETENTION BUSINESS","************","",""
"11/07/2018","08:59","218CR0028755","SUSPICIOUS ACTIVITY","SUSPICIOUS ACTIVITY","MONTANA AND PARK ST","",""
"11/07/2018","08:59","218CR0028756","JUVENILE MISC","JUVENILE MISC","************","",""
"11/07/2018","09:00","218CR0028758","JUVENILE MISC","POSSESSION OF DANGEROUS DRUGS","401 S WYOMING ST","ARREST(s) MADE",""
"11/07/2018","09:00","218CR0028757","CIVIL PAPER SERVICE","CIVIL PAPER SERVICE","1830 FARRAGUT","",""
"11/07/2018","09:02","218CR0028759","WELFARE CHECK","WELFARE CHECK","2315 S DRIVE","",""
"11/07/2018","09:04","218CR0028760","CIVIL PAPER SERVICE","CIVIL PAPER SERVICE","1920 THORNTON","",""
"11/07/2018","09:10","218CR0028761","SUSPICIOUS ACTIVITY","SUSPICIOUS ACTIVITY","2930 EAGLE ST","",""
"11/07/2018","09:15","218CR0028762","T/S","CRIMINAL CONTEMPT","PLATINUM AND MONTANA","ARREST(s) MADE",""
"11/07/2018","09:16","218CR0028763","ATL","ATL","400 S CLARK ST","",""
"11/07/2018","09:25","218CR0028764","WANTED PERSON","WANTED PERSON","************","",""
"11/07/2018","09:28","218CR0028765","SUSPICIOUS ACTIVITY","PROTECTIVE CUSTODY","27 N MAIN","ARREST(s) MADE",""
"11/07/2018","09:36","218CR0028766","DISTURBANCE","DISORDERLY CONDUCT","1050 S MONTANA","ARREST(s) MADE",""
"11/07/2018","09:38","218CR0028767","WELFARE CHECK","WELFARE CHECK","50 W BROADWAY APT 205","",""
"11/07/2018","09:41","218CR0028768","LED BUSINESS","LED BUSINESS","24 E COPPER","",""
"11/07/2018","10:00","218CR0028769","SUSPICIOUS ACTIVITY","SUSPICIOUS ACTIVITY","804 S ARIZONA H // H TRADING","",""
"11/07/2018","10:02","218CR0028770","CITIZEN AID","CITIZEN AID","","",""
"11/07/2018","10:16","218CR0028771","FRAUD","DECEPTIVE PRACT - CREDIT CARD","1901 S WARREN AVE","",""
"11/07/2018","10:23","218CR0028772","MEDICAL - EMERGENCY","MEDICAL - EMERGENCY","1407 HARRISON AVE","",""
"11/07/2018","10:39","218CR0028774","WELFARE CHECK","WELFARE CHECK","2424 MOULTON ST","",""
"11/07/2018","10:39","218CR0028773","STOLEN VEHICLE","STOLEN VEHICLE","DAKOTA AND PARK","",""
"11/07/2018","10:42","218CR0028775","WANTED PERSON","WANTED PERSON","************","",""
"11/07/2018","10:47","218CR0028776","HIT AND RUN","HIT AND RUN, UNATTENDED VEHICL","3901 HARRISON AVE","",""
"11/07/2018","11:09","218CR0028777","MEDICAL - EMERGENCY","MEDICAL - EMERGENCY","20 W GALENA","",""
"11/07/2018","11:33","218CR0028778","DISTURBANCE","DISTURBANCE","800 BLK W SILVER","",""
"11/07/2018","11:50","218CR0028779","CITIZEN AID","CITIZEN AID","16 W GALENA #I","",""
"11/07/2018","12:14","218CR0028781","JUVENILE MISC","ASSAULT, SIMPLE","401 S WYOMING","ARREST(s) MADE",""
"11/07/2018","12:36","218CR0028782","CIVIL PAPER SERVICE","CIVIL PAPER SERVICE","665 S WASHINGTON","",""
"11/07/2018","12:43","218CR0028783","WELFARE CHECK","WELFARE CHECK","WALNUT AND STUART","",""
"11/07/2018","12:44","218CR0028784","CIVIL PAPER SERVICE","CIVIL PAPER SERVICE","643 S MAIN","",""
"11/07/2018","12:49","218CR0028785","CIVIL PAPER SERVICE","CIVIL PAPER SERVICE","1315 IOWA","",""
"11/07/2018","12:56","218CR0028786","CIVIL PAPER SERVICE","CIVIL PAPER SERVICE","1129 ATLANTIC","",""
"11/07/2018","12:57","218CR0028787","SUICIDE ATTEMPT/THREAT","SUICIDE ATTEMPT/THREAT","************","",""
"11/07/2018","13:08","218CR0028788","DETENTION BUSINESS","DETENTION BUSINESS","************","",""
"11/07/2018","13:20","218CR0028789","T/S","T/S","PARK AND OHIO","",""
"11/07/2018","13:22","218CR0028790","ASSAULT","ASSAULT","************","",""
"11/07/2018","13:31","218CR0028791","STOLEN VEHICLE","STOLEN VEHICLE","","",""
"11/07/2018","13:47","218CR0028792","T/S","NO LIABILITY INSURANCE IN EFF.","1800 BLK HARRISON AVE","",""
"11/07/2018","13:52","218CR0028793","WELFARE CHECK","WELFARE CHECK","841 PLACER ST","",""
"11/07/2018","14:01","218CR0028794","DISTURBANCE","DISTURBANCE","4500 CONTINENTAL APT 105","",""
"11/07/2018","14:02","218CR0028795","T/S","DRIVE WHILE SUSP. OR REVOKED","HOWARD ST AND SILVER BOW BLVD","",""
"11/07/2018","14:07","218CR0028796","THEFT","THEFT, SHOPLIFT","1301 HARRISON AVE","",""
"11/07/2018","14:10","218CR0028797","T/S","SPEEDING","ELIZABETH WARREN AND MT HIGHLA","",""
"11/07/2018","14:19","218CR0028799","T/S","OPERATING WITHOUT CURRENT REGI","GEORGE ST AND TEXAS AVE","",""
"11/07/2018","14:19","218CR0028798","ALL OTHER","ALL OTHER","225 N ALASKA","",""
"11/07/2018","14:35","218CR0028800","MEDICAL - EMERGENCY","MEDICAL - EMERGENCY","1326 MISSOURI AVE","",""
"11/07/2018","14:58","218CR0028801","DRUGS","DRUGS","************","",""
"11/07/2018","15:00","218CR0028802","ABANDONED VEHICLE","ABANDONED VEHICLE","1201 S MONTANA","",""
"11/07/2018","15:09","218CR0028803","FIRE - VEHICLE","FIRE - VEHICLE","3636 HARRISON PETCO","",""
"11/07/2018","15:11","218CR0028804","T/S","T/S","ROWE RD AND MONTANA","",""
"11/07/2018","15:27","218CR0028805","ASSIST OTHER AGENCY","ASSIST OTHER AGENCY","I90 MM 233 EBND","",""
"11/07/2018","15:28","218CR0028806","DETENTION BUSINESS","DETENTION BUSINESS","************","",""
"11/07/2018","16:07","218CR0028807","FIRE- GAS ODOR","FIRE- GAS ODOR","1027 E FRONT","",""
"11/07/2018","16:09","218CR0028808","MEDICAL - ASSIST","MEDICAL - ASSIST","************","",""
"11/07/2018","16:18","218CR0028809","ASSIST OTHER AGENCY","ASSIST OTHER AGENCY","I90 MM 235 WBND","",""
"11/07/2018","16:23","218CR0028810","THEFT","BURGLARY, RESIDENCE","425 V TWIN","",""
"11/07/2018","16:28","218CR0028811","ASSIST OTHER AGENCY","ASSIST OTHER AGENCY","316 GRANITE MNT ROAD","",""
"11/07/2018","16:32","218CR0028812","UNWANTED PERSON","UNWANTED PERSON","************","",""
"11/07/2018","16:54","218CR0028813","ALL OTHER","ALL OTHER","I15 MM 126 SBND","",""
"11/07/2018","16:54","218CR0028814","ASSIST OTHER AGENCY","ASSIST OTHER AGENCY","I90 MM 232 EBND","",""
"11/07/2018","17:12","218CR0028815","WELFARE CHECK","WELFARE CHECK","3400 HILL AVE #703","",""
"11/07/2018","17:15","218CR0028816","MEDICAL - EMERGENCY","MEDICAL - EMERGENCY","I90 MM 216 EBND","",""
"11/07/2018","17:45","218CR0028817","ASSIST OTHER AGENCY","ASSIST OTHER AGENCY","316 GRANITE MNT ROAD","",""
"11/07/2018","17:51","218CR0028818","ANIMAL COMPLAINT","ANIMAL COMPLAINT","220 N WYOMING ST #224","",""
"11/07/2018","17:54","218CR0028819","ANIMAL COMPLAINT","ANIMAL COMPLAINT","718 W BROADWAY","",""
"11/07/2018","18:10","218CR0028820","MEDICAL - ASSIST","MEDICAL - ASSIST","************","",""
"11/07/2018","18:18","218CR0028821","MEDICAL - EMERGENCY","MEDICAL - EMERGENCY","814 W GRANITE ST","",""
"11/07/2018","18:45","218CR0028823","SUSPICIOUS ACTIVITY","SUSPICIOUS ACTIVITY","2300 BLK PRINCETON N ALLEY","",""
"11/07/2018","18:55","218CR0028824","ALARM - MEDICAL","ALARM - MEDICAL","************","",""
"11/07/2018","19:02","218CR0028825","T/S","T/S","MERCURY AND ARIZONA","",""
"11/07/2018","19:06","218CR0028826","ASSIST OTHER AGENCY","ASSIST OTHER AGENCY","I90 MM 239EBND","",""
"11/07/2018","19:28","218CR0028827","ASSIST OTHER AGENCY","ASSIST OTHER AGENCY","2300 S MONTANA","",""
"11/07/2018","19:48","218CR0028828","MEDICAL - EMERGENCY","MEDICAL - EMERGENCY","3033 BUSCH #57","",""
"11/07/2018","19:57","218CR0028829","TRAFFIC","TRAFFIC","332 W DALY","",""
"11/07/2018","20:15","218CR0028830","ACCIDENT","ACCIDENT","I15 MM 122 NB","",""
"11/07/2018","20:22","218CR0028831","ALARM - BURGLARY","ALARM - BURGLARY","************","",""
"11/07/2018","20:44","218CR0028832","ASSIST OTHER AGENCY","ASSIST OTHER AGENCY","I15 MM 123 SB","",""
"11/07/2018","20:46","218CR0028833","ACCIDENT","ACCIDENT","FRONT AND MONTANA","",""
"11/07/2018","21:15","218CR0028834","ACCIDENT","ACCIDENT","3000 CONTINENTAL DR","",""
"11/07/2018","21:26","218CR0028835","ACCIDENT","ACCIDENT","HOLMES AND UTAH","",""
"11/07/2018","21:47","218CR0028836","WANTED PERSON","WANTED PERSON","************","",""
"11/07/2018","21:51","218CR0028837","WELFARE CHECK","WELFARE CHECK","501 W GRANITE ST MUELLER APTS","",""
"11/07/2018","22:10","218CR0028838","DISTURBANCE","PFMA - MINOR INJ/PHYSICAL CONT","910 EVANS #B9","",""
"11/07/2018","22:26","218CR0028839","LED CRASH","LED CRASH","3000 BLK CONTINENTAL DR","",""
"11/07/2018","22:30","218CR0028840","TRAFFIC HAZARD","TRAFFIC HAZARD","I15 MM 122 NB","",""
"11/07/2018","22:43","218CR0028841","ASSAULT","ASSAULT","************","",""
"11/07/2018","23:15","218CR0028842","T/S","AGGRAVATED DUI","MAIN AND GALENA","ARREST(s) MADE",""
"11/07/2018","23:33","218CR0028843","SUSPICIOUS ACTIVITY","SUSPICIOUS ACTIVITY","SANTA CLAUS ROAD","",""
"11/07/2018","23:41","218CR0028844","BUSINESS CHECK","POSSESSION OF DANGEROUS DRUGS","22 W GALENA RICHEST HILL CASIN","ARREST(s) MADE",""
"11/08/2018","00:15","218CR0028845","ASSIST OTHER AGENCY","ASSIST OTHER AGENCY","I90 MM 211 EB","",""
"11/08/2018","00:33","218CR0028846","DISTURBANCE","DISTURBANCE","1125 S MAIN 3RD FLOOR","",""
"11/08/2018","01:51","218CR0028847","HARASSMENT","HARASSMENT","1125 S MAIN #315","",""
"11/08/2018","02:04","218CR0028848","WELFARE CHECK","WELFARE CHECK","710 SILVERBOW HOMES","",""
"11/08/2018","02:50","218CR0028849","CITIZEN AID","CITIZEN AID","400 S CLARK ST","",""
"11/08/2018","03:18","218CR0028850","DISTURBANCE-NOISE","DISTURBANCE-NOISE","2600 BLK HARVARD","",""
"11/08/2018","03:50","218CR0028851","DISTURBANCE","DISTURBANCE","840 W SILVER","",""
"11/08/2018","03:54","218CR0028852","SUSPICIOUS ACTIVITY","SUSPICIOUS ACTIVITY","3827 HARRISON/SPLASH N DASH","",""
"11/08/2018","05:52","218CR0028853","T/S","T/S @ 2900 BLK HARRISON","2900 BLK HARRISON","",""
"11/08/2018","06:30","218CR0028855","VANDALISM/CRIMINAL MISCHIEF","VANDALISM/CRIMINAL MISCHIEF","1736 LONGFELLOW #2","",""
"11/08/2018","07:43","218CR0028857","SUSPICIOUS ACTIVITY","SUSPICIOUS ACTIVITY","700 BLK W BROADWAY","",""
"11/08/2018","07:48","218CR0028858","ALARM - BURGLARY","ALARM - BURGLARY","************","",""
"11/08/2018","07:56","218CR0028860","BUSINESS CHECK","BUSINESS CHECK","58 W PARK","",""
"11/08/2018","07:57","218CR0028861","ACCIDENT","ACCIDENT","OREGON AVE BRIDGE","",""
 

BSB police report for November 7, 2018

"11/05/2018","00:05","218CR0028507","MEDICAL - EMERGENCY","MEDICAL - EMERGENCY","1111 SILVER BOW HOMES","",""
"11/05/2018","00:12","218CR0028508","SUSPICIOUS ACTIVITY","SUSPICIOUS ACTIVITY","1960 HARRISON AVE TACO JOHNS","",""
"11/05/2018","00:15","218CR0028509","ALARM - BURGLARY","ALARM - BURGLARY","************","",""
"11/05/2018","00:35","218CR0028510","SUSPICIOUS ACTIVITY","SUSPICIOUS ACTIVITY","1814 ADAMS","",""
"11/05/2018","00:51","218CR0028511","SUSPICIOUS ACTIVITY","SUSPICIOUS ACTIVITY","GRAND AND HARRISON","",""
"11/05/2018","00:51","218CR0028512","SUSPICIOUS ACTIVITY","SUSPICIOUS ACTIVITY","LAFAYETTE AND ELM","",""
"11/05/2018","00:57","218CR0028513","T/S","T/S","ADAM AND FARRELL","",""
"11/05/2018","01:15","218CR0028514","BUSINESS CHECK","BUSINESS CHECK","531 S MONTANA","",""
"11/05/2018","02:05","218CR0028515","SUSPICIOUS ACTIVITY","SUSPICIOUS ACTIVITY","2ND ST AND UTAH AVE","",""
"11/05/2018","02:09","218CR0028516","SUSPICIOUS ACTIVITY","SUSPICIOUS ACTIVITY","2600 BLK AMHERST","",""
"11/05/2018","04:58","218CR0028517","SUSPICIOUS ACTIVITY","SUSPICIOUS ACTIVITY","HILL AVE AND EVANS","",""
"11/05/2018","05:11","218CR0028518","CITIZEN AID","CITIZEN AID","I15 MM 111 NB","",""
"11/05/2018","06:18","218CR0028519","MEDICAL - EMERGENCY","MEDICAL - EMERGENCY","1125 S MAIN ST","",""
"11/05/2018","06:23","218CR0028520","VANDALISM/CRIMINAL MISCHIEF","CRIMINAL MISCHIEF","1407 SUNRISE LN","",""
"11/05/2018","06:49","218CR0028521","CITIZEN AID","CITIZEN AID","1631 SAMPSON ST","",""
"11/05/2018","07:23","218CR0028522","VANDALISM/CRIMINAL MISCHIEF","CRIMINAL MISCHIEF","3210 RICHARDSON","",""
"11/05/2018","07:34","218CR0028523","CIVIL PAPER SERVICE","CIVIL PAPER SERVICE","309 W DALY","",""
"11/05/2018","07:43","218CR0028524","CIVIL PAPER SERVICE","CIVIL PAPER SERVICE","410 S EXCELSIOR","",""
"11/05/2018","07:44","218CR0028525","BUSINESS CHECK","BUSINESS CHECK","58 W PARK","",""
"11/05/2018","07:50","218CR0028526","ACCIDENT- INJURY(MHP)","ACCIDENT- INJURY(MHP)","BEEF TRAIL RD","",""
"11/05/2018","07:53","218CR0028527","ALARM - BURGLARY","ALARM - BURGLARY","************","",""
"11/05/2018","07:55","218CR0028528","FIRE- GAS ODOR","FIRE- GAS ODOR","805 HORNET","",""
"11/05/2018","08:03","218CR0028529","ACCIDENT","ACCIDENT","MAIN AND MULLIN","",""
"11/05/2018","08:04","218CR0028530","CIVIL PAPER SERVICE","CIVIL PAPER SERVICE","1838 PHILLIPS","",""
"11/05/2018","08:14","218CR0028531","CIVIL PAPER SERVICE","CIVIL PAPER SERVICE","2900 ARGYLE","",""
"11/05/2018","08:16","218CR0028532","HIT AND RUN","HIT AND RUN","HORNET ST AND EXCELSIOR AVE","",""
"11/05/2018","08:19","218CR0028533","CIVIL PAPER SERVICE","CIVIL PAPER SERVICE","2825 FARRAGUT #D202","",""
"11/05/2018","08:24","218CR0028534","CIVIL PAPER SERVICE","CIVIL PAPER SERVICE","4810 S ARIZONA","",""
"11/05/2018","08:28","218CR0028535","ALARM - BURGLARY","ALARM - BURGLARY","************","",""
"11/05/2018","08:33","218CR0028536","T/S","T/S","ARIZONA AT 600 ROW SBH","",""
"11/05/2018","08:38","218CR0028537","CIVIL PAPER SERVICE","CIVIL PAPER SERVICE","896 N MAIN","",""
"11/05/2018","08:38","218CR0028538","CIVIL PAPER SERVICE","CIVIL PAPER SERVICE","2124 OREGON","",""
"11/05/2018","08:39","218CR0028539","LED BUSINESS","LED BUSINESS","155 W GRANITE","",""
"11/05/2018","08:47","218CR0028540","VANDALISM/CRIMINAL MISCHIEF","CRIMINAL MISCHIEF","4805 S WARREN AVE","",""
"11/05/2018","08:55","218CR0028541","CIVIL PAPER SERVICE","CIVIL PAPER SERVICE","819 S MAIN","",""
"11/05/2018","09:04","218CR0028542","SUSPICIOUS ACTIVITY","SUSPICIOUS ACTIVITY","1554 HARRISON AVE","",""
"11/05/2018","09:10","218CR0028543","JUVENILE MISC","JUVENILE MISC","************","",""
"11/05/2018","09:19","218CR0028544","ASSIST OTHER AGENCY","ASSIST OTHER AGENCY","","",""
"11/05/2018","09:24","218CR0028545","UNWANTED PERSON","UNWANTED PERSON","************","",""
"11/05/2018","09:24","218CR0028546","INTIMIDATION","INTIMIDATION","1736 LONGFELLOW #10","",""
"11/05/2018","09:49","218CR0028547","T/S","DRIVE WHILE SUSP. OR REVOKED","1800 BLK HARRISON","",""
"11/05/2018","09:55","218CR0028548","MEDICAL - EMERGENCY","MEDICAL - EMERGENCY","1807 SILVER BOW HOMES","",""
"11/05/2018","10:09","218CR0028549","JUVENILE MISC","JUVENILE MISC","************","",""
"11/05/2018","10:15","218CR0028550","LED BUSINESS","LED BUSINESS","155 W GRANITE","",""
"11/05/2018","10:32","218CR0028551","MEDICAL - EMERGENCY","MEDICAL - EMERGENCY","2700 HARVARD","",""
"11/05/2018","10:37","218CR0028552","SUSPICIOUS ACTIVITY","SUSPICIOUS ACTIVITY","FINE FABRIC CARE/101 GALLATIN","",""
"11/05/2018","10:49","218CR0028553","SUSPICIOUS ACTIVITY","SUSPICIOUS ACTIVITY","1370 HARRISON AVE","",""
"11/05/2018","10:52","218CR0028554","JUVENILE MISC","JUVENILE MISC","************","",""
"11/05/2018","10:55","218CR0028555","T/S","T/S @ FRONT ST AND ATLANTIC","FRONT ST AND ATLANTIC","",""
"11/05/2018","11:04","218CR0028556","UNKNOWN PROBLEM","UNKNOWN PROBLEM","225 ALASKA ST","",""
"11/05/2018","11:26","218CR0028557","DISTURBANCE","DISTURBANCE","DEWEY AND LEXINGTON","",""
"11/05/2018","11:30","218CR0028558","ABANDONED VEHICLE- PRIVATE PRO","ABANDONED VEHICLE- PRIVATE PRO","1653 HARRISON AVE","",""
"11/05/2018","11:32","218CR0028559","DETENTION BUSINESS","DETENTION BUSINESS","************","",""
"11/05/2018","11:57","218CR0028560","ASSIST OTHER AGENCY","ASSIST OTHER AGENCY","BUXTON","",""
"11/05/2018","12:01","218CR0028561","WELFARE CHECK","WELFARE CHECK","1125 S MAIN #302","",""
"11/05/2018","12:17","218CR0028562","FIRE- GAS ODOR","FIRE- GAS ODOR","1010 S MAIN","",""
"11/05/2018","12:21","218CR0028563","FIRE- GAS ODOR","FIRE- GAS ODOR","1201 S MONTANA","",""
"11/05/2018","12:50","218CR0028565","BURGLARY","BURGLARY, RESIDENCE","398 PUMP HOUSE RD","",""
"11/05/2018","12:51","218CR0028566","CITIZEN AID","CITIZEN AID","1631 SAMPSON ST","",""
"11/05/2018","12:58","218CR0028567","ABANDONED VEHICLE- PRIVATE PRO","ABANDONED VEHICLE- PRIVATE PRO","505 W PARK ST","",""
"11/05/2018","13:46","218CR0028569","ACCIDENT","OPERATING WITHOUT CURRENT REGI","FRONT AND DAKOTA","",""
"11/05/2018","13:51","218CR0028570","BUSINESS CHECK","BUSINESS CHECK","58 W PARK","",""
"11/05/2018","14:03","218CR0028571","ACCIDENT","DUI DRUGS OR ALCOHOL","GILMAN AND DIXON","ARREST(s) MADE",""
"11/05/2018","14:11","218CR0028572","CIVIL PAPER SERVICE","CIVIL PAPER SERVICE","3405 KENNEDY","",""
"11/05/2018","14:21","218CR0028573","ALARM-DURESS","ALARM-DURESS","************","",""
"11/05/2018","14:31","218CR0028574","VEHICLE INSPECTION","VEHICLE INSPECTION","1420 N MAIN","",""
"11/05/2018","14:43","218CR0028575","JUVENILE MISC","JUVENILE MISC","************","",""
"11/05/2018","14:43","218CR0028576","ALL OTHER","ALL OTHER","2504 MILES CROSSING","",""
"11/05/2018","14:55","218CR0028577","LED BUSINESS","LED BUSINESS","8 REDWOOD DR","",""
"11/05/2018","15:02","218CR0028578","MEDICAL - ASSIST","MEDICAL - ASSIST","************","",""
"11/05/2018","15:39","218CR0028579","UNWANTED PERSON","UNWANTED PERSON","************","",""
"11/05/2018","15:49","218CR0028580","HARASSMENT","ASSAULT WITH WEAPON","2 E GALENA ST","",""
"11/05/2018","16:26","218CR0028581","THEFT","THEFT, SHOPLIFT","1370 HARRISON","",""
"11/05/2018","16:40","218CR0028582","DISTURBANCE","DISTURBANCE","636 1/2 W PARK","",""
"11/05/2018","16:53","218CR0028583","THEFT","THEFT, SHOPLIFT","1370 HARRISON","",""
"11/05/2018","16:54","218CR0028584","THEFT","THEFT, SHOPLIFT","1370 HARRISON","",""
"11/05/2018","16:54","218CR0028585","THEFT","THEFT BY DECEPTION","1370 HARRISON","",""
"11/05/2018","16:54","218CR0028586","THEFT","THEFT, SHOPLIFT","1370 HARRISON","",""
"11/05/2018","17:06","218CR0028587","HARASSMENT","HARASSMENT","2448 NETTIE","",""
"11/05/2018","17:16","218CR0028588","DISTURBANCE","DISTURBANCE","724 PLACER ST","",""
"11/05/2018","17:18","218CR0028589","SUSPICIOUS ACTIVITY","ABANDONED VEHICLE","SUNSET AND WYNNE","",""
"11/05/2018","17:20","218CR0028590","UNKNOWN PROBLEM","UNKNOWN PROBLEM","310 W FRONT","",""
"11/05/2018","17:37","218CR0028591","VANDALISM/CRIMINAL MISCHIEF","CRIMINAL MISCHIEF","1396 PHILLIS LN","",""
"11/05/2018","17:41","218CR0028593","ALL OTHER","THEFT LOST OR MISLAID PROPERTY","MONTANA TECH 1300 W PARK","",""
"11/05/2018","17:41","218CR0028592","LED BUSINESS","LED BUSINESS","711 E FIRST ST","",""
"11/05/2018","17:43","218CR0028594","JUVENILE MISC","JUVENILE MISC","************","",""
"11/05/2018","18:11","218CR0028595","ASSIST OTHER AGENCY","ASSIST OTHER AGENCY","I 90 MM 125 W BND","",""
"11/05/2018","18:22","218CR0028596","THEFT","THEFT FROM MOTOR VEHICLE","3703 HARRISON AVE","",""
"11/05/2018","18:25","218CR0028597","UNWANTED PERSON","UNWANTED PERSON","************","",""
"11/05/2018","19:06","218CR0028598","ALARM - BURGLARY","ALARM - BURGLARY","************","",""
"11/05/2018","19:12","218CR0028599","SUSPICIOUS ACTIVITY","CRIMINAL MISCHIEF","AREA BELOW BIG M","",""
"11/05/2018","19:22","218CR0028600","SUSPICIOUS ACTIVITY","SUSPICIOUS ACTIVITY","PLATNIUM // EXCELSIOR","",""
"11/05/2018","19:33","218CR0028601","ALL OTHER","ALL OTHER","848 S WASHINGTON","",""
"11/05/2018","19:39","218CR0028602","DISTURBANCE","DISTURBANCE","1022 MARYLAND","",""
"11/05/2018","20:32","218CR0028603","T/S","T/S","I90 HARRISON AVE EB OFF RAMP","",""
"11/05/2018","20:34","218CR0028604","MEDICAL - EMERGENCY","MEDICAL - EMERGENCY","2547 FLORAL BLVD","",""
"11/05/2018","20:47","218CR0028605","JUVENILE MISC","JUVENILE MISC","************","",""
"11/05/2018","20:54","218CR0028606","ASSIST OTHER AGENCY","ASSIST OTHER AGENCY","I 15 MM 126 NB","",""
"11/05/2018","20:54","218CR0028607","THEFT","THEFT","100 GARDENS WAY #147","",""
"11/05/2018","21:07","218CR0028608","ALL OTHER","ALL OTHER","225 N ALASKA","",""
"11/05/2018","21:42","218CR0028609","DISTURBANCE-NOISE","DISTURBANCE-NOISE","LINCOLN HOTEL","",""
"11/05/2018","21:46","218CR0028610","UNWANTED PERSON","UNWANTED PERSON","************","",""
"11/05/2018","21:53","218CR0028611","SUSPICIOUS ACTIVITY","SUSPICIOUS ACTIVITY","3200 BLOCK BAYARD","",""
"11/05/2018","22:04","218CR0028612","T/S","T/S","HOWARD AND AMHERST","",""
"11/05/2018","22:05","218CR0028613","T/S","T/S","HARRISON AND AMHERST","",""
"11/05/2018","22:21","218CR0028614","T/S","T/S","2900 BLK HARRISON AVE","",""
"11/05/2018","22:23","218CR0028615","MEDICAL - EMERGENCY","ASSAULT, SIMPLE","117 HAMILTON #3B","ARREST(s) MADE",""
"11/05/2018","22:24","218CR0028616","ASSAULT","ASSAULT","************","",""
"11/05/2018","22:50","218CR0028617","T/S","T/S","PARK AND MONTANA","",""
"11/05/2018","23:13","218CR0028618","DISTURBANCE-NOISE","DISTURBANCE-NOISE","1814 ADAMS","",""
"11/06/2018","00:06","218CR0028619","SUSPICIOUS ACTIVITY","SUSPICIOUS ACTIVITY","3015 HARRISON BUTTE COPPER CO","",""
"11/06/2018","00:19","218CR0028620","T/S","T/S","1370 HARRISON/TOWN PUMP","",""
"11/06/2018","00:22","218CR0028621","T/S","T/S","MARCIA AND THORNTON","",""
"11/06/2018","00:34","218CR0028622","T/S","T/S","MERCURY AND ARIZONA","",""
"11/06/2018","00:37","218CR0028623","DUI","DUI PER SE .08 OR GREATER","1370 HARRISON","ARREST(s) MADE",""
"11/06/2018","01:48","218CR0028624","STOLEN VEHICLE","MOTOR VEHICLE THEFT","501 S MONTANA ST","",""
"11/06/2018","01:51","218CR0028625","T/S","T/S","","",""
"11/06/2018","01:53","218CR0028626","DISTURBANCE","DISTURBANCE","400 S CLARK ST","",""
"11/06/2018","02:23","218CR0028627","ACCIDENT","ACCIDENT","1285 HARRISON AVE","",""
"11/06/2018","02:32","218CR0028628","WELFARE CHECK","WELFARE CHECK","531 S MONTANA","",""
"11/06/2018","02:45","218CR0028629","SUSPICIOUS ACTIVITY","SUSPICIOUS ACTIVITY","2544 HARRISON","",""
"11/06/2018","04:42","218CR0028630","WELFARE CHECK","WELFARE CHECK","EXCELSIOR AND PLATINUM","",""
"11/06/2018","05:08","218CR0028631","MEDICAL - EMERGENCY","MEDICAL - EMERGENCY","3001 CONTINENTAL DRIVE","",""
"11/06/2018","06:04","218CR0028632","THEFT","THEFT, ALL OTHERS","2701 GRAND AVE","",""
"11/06/2018","06:23","218CR0028633","ASSIST OTHER AGENCY","ASSIST OTHER AGENCY","I90 EB HOMESTAKE","",""
"11/06/2018","06:35","218CR0028634","ASSIST OTHER AGENCY","ASSIST OTHER AGENCY","I90 EB 211 1/2","",""
"11/06/2018","07:22","218CR0028636","BUSINESS CHECK","BUSINESS CHECK","58 W PARK","",""
"11/06/2018","07:46","218CR0028637","MEDICAL - EMERGENCY","MEDICAL - EMERGENCY","1502 CALIFORNIA ST","",""
"11/06/2018","07:49","218CR0028638","CITIZEN AID","CITIZEN AID","62 W BROADWAY PRE RELEASE CTR","",""
"11/06/2018","07:50","218CR0028639","BUSINESS CHECK","BUSINESS CHECK","58 W PARK","",""
"11/06/2018","07:55","218CR0028640","LED BUSINESS","LED BUSINESS","3 GREENWOOD AVE","",""
"11/06/2018","07:58","218CR0028641","TRAFFIC","TRAFFIC","2114 SILVER BOW BLVD","",""
"11/06/2018","08:01","218CR0028642","BUSINESS CHECK","BUSINESS CHECK","58 W PARK ST PARKING GARAGE","",""
"11/06/2018","08:10","218CR0028643","CIVIL PAPER SERVICE","CIVIL PAPER SERVICE","819 S MAIN","",""
"11/06/2018","08:13","218CR0028644","CIVIL PAPER SERVICE","CIVIL PAPER SERVICE","207 BAVARIA","",""
"11/06/2018","08:20","218CR0028645","ACCIDENT","ACCIDENT","EXCELSIOR AND GRANITE","",""
"11/06/2018","08:21","218CR0028646","WELFARE CHECK","WELFARE CHECK","100 GARDENS WAY APT 134","",""
"11/06/2018","08:22","218CR0028647","SNOW REMOVAL COMPLAINT","SNOW REMOVAL COMPLAINT","500 600 BLK W PARK","",""
"11/06/2018","08:29","218CR0028648","MEDICAL - EMERGENCY","MEDICAL - EMERGENCY","135 SADDLEHORN DRIVE","",""
"11/06/2018","08:36","218CR0028649","WELFARE CHECK","WELFARE CHECK","125 W FRONT ST","",""
"11/06/2018","08:48","218CR0028650","THEFT","THEFT, ALL OTHERS","2039 1/2 S ARIZONA","",""
"11/06/2018","08:52","218CR0028651","ACCIDENT","ACCIDENT","1100 BLK S MONTANA","",""
"11/06/2018","08:52","218CR0028652","INFORMATION ONLY","INFORMATION ONLY","1050 S MONTANA","",""
"11/06/2018","09:01","218CR0028653","T/S","T/S","ROWE RD AND HANSEN","",""
"11/06/2018","09:14","218CR0028654","LOST OR STOLEN PROPERTY","THEFT LOST OR MISLAID PROPERTY","21 HOLLY LANE","",""
"11/06/2018","09:14","218CR0028655","ACCIDENT","ACCIDENT","435 S CRYSTAL","",""
"11/06/2018","09:21","218CR0028656","CIVIL PAPER SERVICE","CIVIL PAPER SERVICE","4810 S ARIZONA","",""
"11/06/2018","09:22","218CR0028657","CIVIL PAPER SERVICE","CIVIL PAPER SERVICE","3311 SANDERS","",""
"11/06/2018","09:22","218CR0028658","BUSINESS CHECK","BUSINESS CHECK","CIVIC CENTER","",""
"11/06/2018","09:33","218CR0028659","ACCIDENT","ACCIDENT","939 N MAIN","",""
"11/06/2018","09:34","218CR0028660","CIVIL PAPER SERVICE","CIVIL PAPER SERVICE","1920 THORNTON AVE","",""
"11/06/2018","09:43","218CR0028661","THEFT","THEFT","1500 FAIRMONT RD","",""
"11/06/2018","09:50","218CR0028662","CIVIL PAPER SERVICE","CIVIL PAPER SERVICE","10 GLADSTONE TERRACE","",""
"11/06/2018","10:00","218CR0028663","BURGLARY","BURGLARY","16 W GALENA","",""
"11/06/2018","10:05","218CR0028664","UNWANTED PERSON","UNWANTED PERSON","************","",""
"11/06/2018","10:06","218CR0028665","CIVIL PAPER SERVICE","CIVIL PAPER SERVICE","1050 S MONTANA ST","",""
"11/06/2018","10:28","218CR0028666","CIVIL PAPER SERVICE","CIVIL PAPER SERVICE","1129 ATLANTIC","",""
"11/06/2018","10:30","218CR0028667","WELFARE CHECK","WELFARE CHECK","1100 BLK S MONTANA","",""
"11/06/2018","10:32","218CR0028668","PARKING COMPLAINT","PARKING COMPLAINT","205 N EXCELSIOR","",""
"11/06/2018","10:37","218CR0028669","CIVIL PAPER SERVICE","CIVIL PAPER SERVICE","643 S MAIN","",""
"11/06/2018","10:42","218CR0028670","CIVIL PAPER SERVICE","CIVIL PAPER SERVICE","665 S WASHINGTON","",""
"11/06/2018","11:09","218CR0028671","ALARM - BURGLARY","ALARM - BURGLARY","************","",""
"11/06/2018","11:11","218CR0028672","MEDICAL - EMERGENCY","MEDICAL - EMERGENCY","902 HORNET ST","",""
"11/06/2018","11:14","218CR0028673","TRAFFIC HAZARD","TRAFFIC HAZARD","1700 BLK HOBSON","",""
"11/06/2018","11:16","218CR0028674","MEDICAL - EMERGENCY","MEDICAL - EMERGENCY","1125 S MAIN ST #311","",""
"11/06/2018","11:24","218CR0028675","ALL OTHER","ALL OTHER","","",""
"11/06/2018","11:34","218CR0028676","T/S","T/S @ DEWEY AND ROWE RD","DEWEY AND ROWE RD","",""
"11/06/2018","11:35","218CR0028677","SNOW REMOVAL COMPLAINT","SNOW REMOVAL COMPLAINT","705 S ARIZONA ST","",""
"11/06/2018","11:38","218CR0028678","SUSPICIOUS ACTIVITY","SUSPICIOUS ACTIVITY","1245 HARRISON AVE","",""
"11/06/2018","11:42","218CR0028679","ACCIDENT","ACCIDENT","2860 SILVER BOW BLVD","",""
"11/06/2018","11:50","218CR0028680","ACCIDENT","ACCIDENT","1340 HARRISON AVE","",""
"11/06/2018","12:18","218CR0028681","FRAUD","THEFT LOST OR MISLAID PROPERTY","225 ALASKA ST","",""
"11/06/2018","12:23","218CR0028682","BUSINESS CHECK","BUSINESS CHECK","58 W PARK","",""
"11/06/2018","12:27","218CR0028683","BUSINESS CHECK","BUSINESS CHECK","1340 HARRISON AVE","",""
"11/06/2018","12:49","218CR0028684","WANTED PERSON","CRIMINAL CONTEMPT","436 S MAIN APT 105","ARREST(s) MADE",""
"11/06/2018","13:01","218CR0028685","ACCIDENT","ACCIDENT","CRYSTAL AND PARK","",""
"11/06/2018","13:21","218CR0028686","ABANDONED VEHICLE- PRIVATE PRO","ABANDONED VEHICLE- PRIVATE PRO","840 S MONTANA","",""
"11/06/2018","13:23","218CR0028687","SUSPICIOUS ACTIVITY","SUSPICIOUS ACTIVITY","2100 BLK S ARIZONA ST","",""
"11/06/2018","13:37","218CR0028688","T/S","T/S","DUNDEE ST AND PHILLIPS AVE","",""
"11/06/2018","13:46","218CR0028689","THEFT","MOTOR VEHICLE THEFT","HELSINKI BAR","",""
"11/06/2018","14:05","218CR0028690","ABANDONED VEHICLE","ABANDONED VEHICLE","4100 BLK WYNNE","",""
"11/06/2018","14:18","218CR0028691","BUSINESS CHECK","BUSINESS CHECK","1300 BLOCK HARRISON AVE","",""
"11/06/2018","15:05","218CR0028692","MEDICAL - EMERGENCY","MEDICAL - EMERGENCY","401 S WYOMING ST","",""
"11/06/2018","15:12","218CR0028693","MEDICAL - EMERGENCY","MEDICAL - EMERGENCY","37 TRINITY LOOP","",""
"11/06/2018","15:14","218CR0028694","ALL OTHER","ALL OTHER","1001 N EMMETT","",""
"11/06/2018","15:17","218CR0028695","FRAUD","FRAUD","1933 ABERDEEN","",""
"11/06/2018","15:22","218CR0028696","JUVENILE MISC","JUVENILE MISC","************","",""
"11/06/2018","15:57","218CR0028697","WELFARE CHECK","WELFARE CHECK","2424 MOULTON ST","",""
"11/06/2018","16:00","218CR0028698","ALL OTHER","ALL OTHER","ROOSEVELT DRIVE","",""
"11/06/2018","16:14","218CR0028699","DISTURBANCE","DISTURBANCE","1751 HARRISON","",""
"11/06/2018","16:25","218CR0028700","WELFARE CHECK","WELFARE CHECK","60 W GALENA","",""
"11/06/2018","16:32","218CR0028701","ALL OTHER","ALL OTHER","GALENA AND MONTANA","",""
"11/06/2018","16:35","218CR0028702","ALARM - MEDICAL","ALARM - MEDICAL","************","",""
"11/06/2018","16:39","218CR0028703","JUVENILE MISC","UNGOVERNABLE JUVENILE","1530 PHILLIPS AVE","ARREST(s) MADE",""
"11/06/2018","16:44","218CR0028704","WANTED PERSON","WANTED PERSON","************","",""
"11/06/2018","16:52","218CR0028705","CIVIL STANDBY","CIVIL STANDBY","936 NEVADA","",""
"11/06/2018","17:17","218CR0028706","T/S","NO LIABILITY INSURANCE IN EFF.","HARRISON AND AMHERST","",""
"11/06/2018","17:24","218CR0028707","ALL OTHER","ALL OTHER","531 S MONTANA","",""
"11/06/2018","17:26","218CR0028708","ANIMAL COMPLAINT","ANIMAL COMPLAINT","","",""
"11/06/2018","17:48","218CR0028709","ALL OTHER","ALL OTHER","","",""
"11/06/2018","17:59","218CR0028710","FRAUD","FRAUD","155 W QUARTZ","",""
"11/06/2018","18:05","218CR0028711","JUVENILE MISC","JUVENILE MISC","************","",""
"11/06/2018","18:35","218CR0028712","ACCIDENT","RIGHT-OF-WAY VIOLATION","3 BEARS DRIVE","",""
"11/06/2018","18:35","218CR0028713","ALARM - BURGLARY","ALARM - BURGLARY","************","",""
"11/06/2018","18:57","218CR0028714","FIRE - OTHER","FIRE - OTHER","SALT CONSTRUCTION","",""
"11/06/2018","19:01","218CR0028715","SUSPICIOUS ACTIVITY","SUSPICIOUS ACTIVITY","CIVIC CENTER 1340 HARRISON","",""
"11/06/2018","19:20","218CR0028716","PARKING COMPLAINT","PARKING COMPLAINT","523 E FRONT ST","",""
"11/06/2018","19:53","218CR0028717","SUSPICIOUS ACTIVITY","SUSPICIOUS ACTIVITY","2730 ABERDEEN","",""
"11/06/2018","20:02","218CR0028718","ASSIST OTHER AGENCY","ASSIST OTHER AGENCY","I15 MM 148 SBND","",""
"11/06/2018","20:24","218CR0028719","SUSPICIOUS ACTIVITY","SUSPICIOUS ACTIVITY","2930 EAGLE","",""
"11/06/2018","20:29","218CR0028720","ALL OTHER","ALL OTHER","305 S OHIO","",""
"11/06/2018","21:20","218CR0028721","HARASSMENT","HARASSMENT","66 W GOLD","",""
"11/06/2018","21:21","218CR0028722","SUSPICIOUS ACTIVITY","SUSPICIOUS ACTIVITY","2200 2300 BLK LOCUST","",""
"11/06/2018","22:19","218CR0028723","UNWANTED PERSON","UNWANTED PERSON","************","",""
"11/06/2018","22:47","218CR0028724","CHILD ABUSE","CHILD ABUSE","************","",""
"11/06/2018","23:05","218CR0028725","SUSPICIOUS ACTIVITY","SUSPICIOUS ACTIVITY","3200 BLK DEXTER","",""
"11/06/2018","23:20","218CR0028726","MEDICAL - EMERGENCY","MEDICAL - EMERGENCY","3116 PAXSON","",""
"11/07/2018","00:04","218CR0028727","WELFARE CHECK","WELFARE CHECK","450 LUPINE LN","",""
"11/07/2018","00:17","218CR0028728","MEDICAL - EMERGENCY","MEDICAL - EMERGENCY","3901 HARRISON WALMART","",""
"11/07/2018","00:59","218CR0028729","T/S","T/S","HARRISON AND B ST","",""
"11/07/2018","01:27","218CR0028730","ATL","ATL","MAIN AND PLATINUM","",""
"11/07/2018","02:17","218CR0028731","BUSINESS CHECK","BUSINESS CHECK","531 S MONTANA TOWN PUMP","",""
"11/07/2018","02:31","218CR0028732","SUSPICIOUS ACTIVITY","SUSPICIOUS ACTIVITY","400 BLK S DAKOTA SST","",""
"11/07/2018","03:03","218CR0028733","STOLEN VEHICLE","STOLEN VEHICLE","5100 WARREN AVE","",""
"11/07/2018","03:07","218CR0028734","DISTURBANCE","AGGRAVATED BURGLARY","10","",""
"11/07/2018","03:30","218CR0028735","WELFARE CHECK","WELFARE CHECK","1021 GAYLORD","",""
"11/07/2018","04:09","218CR0028736","ALARM - BURGLARY","ALARM - BURGLARY","************","",""
"11/07/2018","04:49","218CR0028737","MEDICAL - EMERGENCY","MEDICAL - EMERGENCY","1000 GRIZZLY TRAIL TOWN PUMP","",""
"11/07/2018","04:56","218CR0028738","T/S","T/S","E ALUMINUM AND ARIZONA","",""
"11/07/2018","06:52","218CR0028740","T/S","T/S @ MONTANA AND PLATINUM","MONTANA AND PLATINUM","",""
"11/07/2018","07:27","218CR0028742","T/S","T/S @ MONTANA AND PLATINUM","MONTANA AND PLATINUM","",""
"11/07/2018","07:49","218CR0028743","T/S","T/S @ MONTANA AND SECOND","MONTANA AND SECOND","",""
 

BSB police report ending November 5, 2018

"11/02/2018","00:01","218CR0028266","SEXUAL ASSAULT","SEXUAL ASSAULT","************","",""
"11/02/2018","00:17","218CR0028267","ATL","ATL","24 E COPPER","",""
"11/02/2018","00:39","218CR0028268","DISTURBANCE","DISTURBANCE","541 S MONTANA SPUD MCGEES","",""
"11/02/2018","00:42","218CR0028269","DUI","AGGRAVATED DUI","2112 GRAND AVE","ARREST(s) MADE",""
"11/02/2018","00:47","218CR0028270","DISTURBANCE","CRIMINAL CONTEMPT","541 S MAIN SPUD MCGEES","ARREST(s) MADE",""
"11/02/2018","01:53","218CR0028271","ILLEGAL SHOOTING","ILLEGAL SHOOTING","31 E GAGNON ST","",""
"11/02/2018","03:44","218CR0028272","MEDICAL - EMERGENCY","MEDICAL - EMERGENCY","812 SILVERBOW HOMES","",""
"11/02/2018","04:11","218CR0028273","SUSPICIOUS ACTIVITY","SUSPICIOUS ACTIVITY","2925 HANSEN RD","",""
"11/02/2018","04:35","218CR0028274","OPEN BUILDING","OPEN BUILDING","2937 HANSEN RD","",""
"11/02/2018","05:29","218CR0028275","SUSPICIOUS ACTIVITY","CRIMINAL CONTEMPT","CONTINENTAL DR AND BAYARD ST","ARREST(s) MADE",""
"11/02/2018","06:35","218CR0028276","THEFT","THEFT, SHOPLIFT","531 S MONTANA","",""
"11/02/2018","07:18","218CR0028277","ANIMAL COMPLAINT","ANIMAL COMPLAINT","BARTLETT // ASPEN LOOP","",""
"11/02/2018","07:52","218CR0028278","T/S","OPERATING WITHOUT CURRENT REGI","ELIZABETH WARREN AND BURNING T","",""
"11/02/2018","07:54","218CR0028279","T/S","T/S","DAHLGREN AND AMHERST","",""
"11/02/2018","08:04","218CR0028280","SUSPICIOUS ACTIVITY","SUSPICIOUS ACTIVITY","3703 HARRISON AVE","",""
"11/02/2018","08:19","218CR0028281","BUSINESS CHECK","BUSINESS CHECK","58 W PARK ST PARKING GARAGE","",""
"11/02/2018","08:21","218CR0028282","W/PRISONER","W/PRISONER","812 E 2ND ST","",""
"11/02/2018","08:22","218CR0028283","CIVIL PAPER SERVICE","CIVIL PAPER SERVICE","4810 S ARIZONA ST","",""
"11/02/2018","08:31","218CR0028284","BUSINESS CHECK","BUSINESS CHECK","58 W PARK ST PARKING GARAGE","",""
"11/02/2018","08:35","218CR0028285","CIVIL PAPER SERVICE","CIVIL PAPER SERVICE","2124 OREGON","",""
"11/02/2018","08:51","218CR0028286","CIVIL PAPER SERVICE","CIVIL PAPER SERVICE","10 GLADSTONE TERRACE","",""
"11/02/2018","09:24","218CR0028287","THEFT","THEFT, ALL OTHERS","116033 FLEECER RD","",""
"11/02/2018","09:31","218CR0028289","CIVIL PAPER SERVICE","CIVIL PAPER SERVICE","2825 FARRAGUT #D202","",""
"11/02/2018","09:33","218CR0028288","MEDICAL - EMERGENCY","MEDICAL - EMERGENCY","317 GRANITE MTN RD","",""
"11/02/2018","09:35","218CR0028290","LED BUSINESS","LED BUSINESS","24 E COPPER","",""
"11/02/2018","09:39","218CR0028291","CIVIL PAPER SERVICE","CIVIL PAPER SERVICE","2545 AMHERST","",""
"11/02/2018","09:46","218CR0028292","LED BUSINESS","LED BUSINESS","155 W GRANITE ST","",""
"11/02/2018","09:53","218CR0028293","WELFARE CHECK","WELFARE CHECK","1736 LONGFELLOW #16","",""
"11/02/2018","09:59","218CR0028294","WELFARE CHECK","WELFARE CHECK","633 S IDAHO","",""
"11/02/2018","10:32","218CR0028295","SUSPICIOUS ACTIVITY","SUSPICIOUS ACTIVITY","1245 FARRELL ST","",""
"11/02/2018","10:32","218CR0028296","UNKNOWN PROBLEM","UNKNOWN PROBLEM","200 BLK MISSOULA AVE","",""
"11/02/2018","10:40","218CR0028297","CIVIL PAPER SERVICE","CIVIL PAPER SERVICE","400 S CLARK","",""
"11/02/2018","10:57","218CR0028298","T/S","T/S","DEWEY AND HILL","",""
"11/02/2018","11:07","218CR0028299","DISTURBANCE","DISTURBANCE","1221 FARRELL","",""
"11/02/2018","11:19","218CR0028300","ATL","ATL","HIGH ALTITUDE SPEED SKATING CT","",""
"11/02/2018","11:20","218CR0028301","HARASSMENT","HARASSMENT","1631 ELM ST","",""
"11/02/2018","11:56","218CR0028302","T/S","T/S","2300 BLK CONTINENTAL DR","",""
"11/02/2018","12:09","218CR0028303","FIRE- GAS ODOR","FIRE- GAS ODOR","120 W GRANITE","",""
"11/02/2018","12:14","218CR0028304","CIVIL STANDBY","CIVIL STANDBY","","",""
"11/02/2018","12:16","218CR0028305","VEHICLE INSPECTION","VEHICLE INSPECTION","225 N ALASKA","",""
"11/02/2018","12:20","218CR0028306","TRAFFIC HAZARD","TRAFFIC HAZARD","GRAND AND HARRISON","",""
"11/02/2018","12:28","218CR0028307","PARKING COMPLAINT","PARKING COMPLAINT","332 W BROADWAY","",""
"11/02/2018","12:39","218CR0028308","DRUGS","DRUGS","************","",""
"11/02/2018","12:40","218CR0028309","LED BUSINESS","LED BUSINESS","BSB GUN RANGE","",""
"11/02/2018","12:49","218CR0028310","MEDICAL - EMERGENCY","MEDICAL - EMERGENCY","26 S ROCKER RD","",""
"11/02/2018","13:23","218CR0028311","ALARM - BURGLARY","ALARM - BURGLARY","************","",""
"11/02/2018","13:27","218CR0028312","ALARM - BURGLARY","ALARM - BURGLARY","************","",""
"11/02/2018","13:49","218CR0028313","THEFT","THEFT, ALL OTHERS","1205 S MONTANA","",""
"11/02/2018","13:53","218CR0028314","SUSPICIOUS ACTIVITY","SUSPICIOUS ACTIVITY","100 GARDENS WAY","",""
"11/02/2018","14:21","218CR0028315","ALL OTHER","ALL OTHER","FLORAL AND SHERIDAN AVE","",""
"11/02/2018","14:38","218CR0028316","ALARM - FIRE","ALARM - FIRE","120 W GRANITE","",""
"11/02/2018","14:46","218CR0028317","ALL OTHER","ALL OTHER","2018 PORTER","",""
"11/02/2018","14:53","218CR0028318","ALL OTHER","ALL OTHER","2500 MASSACHUSETTS AVE","",""
"11/02/2018","14:57","218CR0028319","CIVIL PAPER SERVICE","CRIMINAL CONTEMPT","2545 AMHERST","ARREST(s) MADE",""
"11/02/2018","15:09","218CR0028320","CIVIL STANDBY","CIVIL STANDBY","225 N ALASKA","",""
"11/02/2018","15:35","218CR0028321","THEFT","THEFT, SHOPLIFT","3901 HARRISON","",""
"11/02/2018","15:38","218CR0028322","BUSINESS CHECK","BUSINESS CHECK","58 W PARK","",""
"11/02/2018","15:47","218CR0028323","HIT AND RUN","CRIMINAL ENDANGERMENT","500 S EMMETT","",""
"11/02/2018","15:55","218CR0028324","FRAUD","FRAUD","225 N ALASKA","",""
"11/02/2018","15:57","218CR0028325","WANTED PERSON","WANTED PERSON","************","",""
"11/02/2018","16:02","218CR0028326","PARKING COMPLAINT","PARKING COMPLAINT","502 E FRONT ST IN ALLEY","",""
"11/02/2018","16:08","218CR0028327","MEDICAL - EMERGENCY","MEDICAL - EMERGENCY","2825 FARRAGUT APT E103","",""
"11/02/2018","16:08","218CR0028328","DISTURBANCE-NOISE","DISTURBANCE-NOISE","207 W PARK ST #5","",""
"11/02/2018","16:14","218CR0028329","THEFT","CRIMINAL TRESPASS TO PROPERTY","528 W QUARTZ","",""
"11/02/2018","16:16","218CR0028330","LOST OR STOLEN PROPERTY","THEFT, ALL OTHERS","39 W DALY ST","",""
"11/02/2018","16:28","218CR0028331","WANTED PERSON","WANTED PERSON","************","",""
"11/02/2018","16:36","218CR0028332","THEFT","THEFT, SHOPLIFT","3901 HARRISON","ARREST(s) MADE",""
"11/02/2018","16:58","218CR0028333","LED BUSINESS","LED BUSINESS","936 NEVADA","",""
"11/02/2018","17:01","218CR0028334","FRAUD","FRAUD","225 N ALASKA","",""
"11/02/2018","17:36","218CR0028335","HIT AND RUN","HIT AND RUN","3500 HARRISON AVE","",""
"11/02/2018","17:58","218CR0028336","ATL","ATL","4075 WYNNE AVE","",""
"11/02/2018","18:17","218CR0028337","ALL OTHER","ALL OTHER","1620 N MAIN","",""
"11/02/2018","18:19","218CR0028338","UNWANTED PERSON","UNWANTED PERSON","************","",""
"11/02/2018","18:55","218CR0028339","ALL OTHER","ALL OTHER","472 ELKHORN","",""
"11/02/2018","18:58","218CR0028340","PARKING COMPLAINT","PARKING COMPLAINT","414 W GRANITE ST","",""
"11/02/2018","19:02","218CR0028341","SUSPICIOUS ACTIVITY","SUSPICIOUS ACTIVITY","1700 CIVIC CENTER RD","",""
"11/02/2018","19:59","218CR0028343","MEDICAL - EMERGENCY","MEDICAL - EMERGENCY","910 EVANS #H2","",""
"11/02/2018","20:16","218CR0028344","MEDICAL - EMERGENCY","MEDICAL - EMERGENCY","2900 HARRISON AVE","",""
"11/02/2018","20:23","218CR0028345","ALL OTHER","ALL OTHER","1504 ELM","",""
"11/02/2018","20:34","218CR0028346","FIRE - STRUCTURE","FIRE - STRUCTURE","1012 MICHIGAN","",""
"11/02/2018","21:00","218CR0028347","WELFARE CHECK","WELFARE CHECK","549 S MAIN","",""
"11/02/2018","21:17","218CR0028348","UNKNOWN PROBLEM","UNKNOWN PROBLEM","220 N WYOMING","",""
"11/02/2018","21:21","218CR0028349","DISTURBANCE-NOISE","DISTURBANCE-NOISE","635 W GRANITE","",""
"11/02/2018","22:07","218CR0028350","THEFT","BURGLARY, RESIDENCE","1601 GAYLORD","",""
"11/02/2018","22:08","218CR0028351","BUSINESS CHECK","BUSINESS CHECK","58 W PARK ST PARKING GARAGE","",""
"11/02/2018","22:15","218CR0028352","SUSPICIOUS ACTIVITY","SUSPICIOUS ACTIVITY","1756 ADAMS","",""
"11/02/2018","22:20","218CR0028353","T/S","NO LIABILITY INSURANCE IN EFF.","PLATINUM AND ARIZONA","",""
"11/02/2018","22:29","218CR0028354","SUSPICIOUS ACTIVITY","SUSPICIOUS ACTIVITY","GRAND AND HAYES","",""
"11/02/2018","22:35","218CR0028355","SUSPICIOUS ACTIVITY","SUSPICIOUS ACTIVITY","10 BLK SUNVIEW TERRACE","",""
"11/02/2018","22:45","218CR0028356","MEDICAL - EMERGENCY","MEDICAL - EMERGENCY","","",""
"11/02/2018","22:45","218CR0028357","MEDICAL - EMERGENCY","ASSAULT WITH WEAPON","2905 MOULTON","",""
"11/02/2018","23:03","218CR0028358","DISTURBANCE-NOISE","DISTURBANCE-NOISE","635 W GRANITE","",""
"11/02/2018","23:14","218CR0028359","DISTURBANCE","DISTURBANCE","3700 HARRISON MAGIC DIAMOND","",""
"11/02/2018","23:26","218CR0028360","SUSPICIOUS ACTIVITY","SUSPICIOUS ACTIVITY","2800 BLK KOSSUTH","",""
"11/02/2018","23:29","218CR0028361","DISTURBANCE-NOISE","DISTURBANCE-NOISE","910 EVANS APT C3","",""
"11/02/2018","23:52","218CR0028362","DISTURBANCE-NOISE","DISTURBANCE-NOISE","1615 N MAIN","",""
"11/03/2018","01:54","218CR0028363","DISTURBANCE","DISTURBANCE","433 W IRON","",""
"11/03/2018","02:04","218CR0028364","DISTURBANCE-NOISE","DISTURBANCE-NOISE","1125 S MAIN ROSALIE MANOR","",""
"11/03/2018","03:49","218CR0028365","SUSPICIOUS ACTIVITY","SUSPICIOUS ACTIVITY","1900 2000 BLK WALNUT","",""
"11/03/2018","04:06","218CR0028366","MEDICAL - EMERGENCY","MEDICAL - EMERGENCY","3470 RIDGEWAY","",""
"11/03/2018","04:28","218CR0028367","THEFT","THEFT, SHOPLIFT","1000 GRIZZLY TR TOWN PUMP","",""
"11/03/2018","05:00","218CR0028368","MEDICAL - EMERGENCY","MEDICAL - EMERGENCY","","",""
"11/03/2018","05:27","218CR0028369","SUSPICIOUS ACTIVITY","SUSPICIOUS ACTIVITY","969 N MAIN ST","",""
"11/03/2018","06:03","218CR0028370","ALARM - BURGLARY","ALARM - BURGLARY","************","",""
"11/03/2018","06:13","218CR0028371","MEDICAL - EMERGENCY","MEDICAL - EMERGENCY","1300 W PARK","",""
"11/03/2018","07:48","218CR0028372","BUSINESS CHECK","BUSINESS CHECK","58 W PARK","",""
"11/03/2018","08:08","218CR0028373","BUSINESS CHECK","BUSINESS CHECK","58 W PARK","",""
"11/03/2018","09:00","218CR0028374","HIT AND RUN","HIT AND RUN, UNATTENDED VEHICL","226 W SILVER APT 19","",""
"11/03/2018","09:01","218CR0028375","CIVIL PAPER SERVICE","CIVIL PAPER SERVICE","4810 S ARIZONA","",""
"11/03/2018","09:13","218CR0028376","T/S","T/S","ELIZABETH WARREN AND FORD WY","",""
"11/03/2018","09:18","218CR0028377","THEFT","THEFT FROM MOTOR VEHICLE","4655 HARRISON AVE","",""
"11/03/2018","09:23","218CR0028378","STOLEN VEHICLE","BURGLARY, NON-RESIDENCE","1301 UTAH AVE","",""
"11/03/2018","09:56","218CR0028379","UNWANTED PERSON","UNWANTED PERSON","************","",""
"11/03/2018","10:07","218CR0028380","ACCIDENT","ACCIDENT","2324 WALNUT","",""
"11/03/2018","10:33","218CR0028381","MEDICAL - EMERGENCY","MEDICAL - EMERGENCY","220 N WYOMING RM 108","",""
"11/03/2018","10:39","218CR0028382","VANDALISM/CRIMINAL MISCHIEF","CRIMINAL MISCHIEF","120 N MONTANA 3B","",""
"11/03/2018","10:55","218CR0028384","THEFT","THEFT, ALL OTHERS","135 BOVINE WAY","",""
"11/03/2018","11:17","218CR0028386","UNWANTED PERSON","UNWANTED PERSON","************","",""
"11/03/2018","11:21","218CR0028387","FOUND PROPERTY","FOUND PROPERTY","************","",""
"11/03/2018","11:42","218CR0028388","ALARM - BURGLARY","ALARM - BURGLARY","************","",""
"11/03/2018","11:44","218CR0028389","THEFT","THEFT","531 S MONTANA","",""
"11/03/2018","12:01","218CR0028390","MEDICAL - EMERGENCY","MEDICAL - EMERGENCY","1300 W PARK","",""
"11/03/2018","12:03","218CR0028391","UNWANTED PERSON","UNWANTED PERSON","************","",""
"11/03/2018","12:27","218CR0028392","ACCIDENT","ACCIDENT","1322 SAGE ST","",""
"11/03/2018","12:43","218CR0028393","T/S","DRIVE WHILE SUSP. OR REVOKED","MONTANA AND GOLD","",""
"11/03/2018","13:10","218CR0028394","HARASSMENT","HARASSMENT","932 S UTAH","",""
"11/03/2018","13:13","218CR0028395","TRAFFIC HAZARD","TRAFFIC HAZARD","1800 BLK ADAMS","",""
"11/03/2018","14:35","218CR0028396","ACCIDENT","ACCIDENT","1300 BLOCK OF PLATINUM","",""
"11/03/2018","15:10","218CR0028397","ALARM-DURESS","ALARM-DURESS","************","",""
"11/03/2018","15:10","218CR0028398","T/S","T/S","1921 THOMAS AVE","",""
"11/03/2018","15:24","218CR0028399","HARASSMENT","HARASSMENT","2700 HARRISON","",""
"11/03/2018","15:33","218CR0028400","THEFT","THEFT","222 E PARK","",""
"11/03/2018","15:42","218CR0028401","MEDICAL - EMERGENCY","MEDICAL - EMERGENCY","3153 WYNNE","",""
"11/03/2018","16:16","218CR0028402","DISTURBANCE","DISTURBANCE","58 W PARK ST PARKING GARAGE","",""
"11/03/2018","16:24","218CR0028403","DISTURBANCE","PFMA - WEAPON","3220 HANNIBAL","",""
"11/03/2018","16:30","218CR0028404","WELFARE CHECK","WELFARE CHECK","1027 E FRONT","",""
"11/03/2018","16:36","218CR0028405","ALL OTHER","ALL OTHER","22 W GALENA RICHEST HILL CASIN","",""
"11/03/2018","17:02","218CR0028406","ALL OTHER","ALL OTHER","910 EVANS","",""
"11/03/2018","17:14","218CR0028407","ALL OTHER","ALL OTHER","540 S MAIN ST","",""
"11/03/2018","17:16","218CR0028408","MEDICAL - EMERGENCY","MEDICAL - EMERGENCY","1921 LAFAYETTE","",""
"11/03/2018","17:26","218CR0028409","UNKNOWN PROBLEM","UNKNOWN PROBLEM","1300 BLK CASEY ST","",""
"11/03/2018","17:39","218CR0028410","ALL OTHER","ALL OTHER","25 E GRANITE #310","",""
"11/03/2018","18:23","218CR0028411","ALL OTHER","ALL OTHER","531 S MONTANA","",""
"11/03/2018","18:23","218CR0028412","ALL OTHER","ALL OTHER","531 S MONTANA","",""
"11/03/2018","18:55","218CR0028413","ALL OTHER","ALL OTHER","102 SILVER BOW HOMES","",""
"11/03/2018","18:56","218CR0028414","PARKING COMPLAINT","PARKING COMPLAINT","1315 S MONTANA ST","",""
"11/03/2018","19:19","218CR0028415","ALL OTHER","ALL OTHER","115 LAUREL","",""
"11/03/2018","19:22","218CR0028416","VANDALISM/CRIMINAL MISCHIEF","VANDALISM/CRIMINAL MISCHIEF","1647 B ST","",""
"11/03/2018","20:43","218CR0028417","T/S","T/S","TX AND SHIELD","",""
"11/03/2018","20:48","218CR0028418","TRAFFIC HAZARD","TRAFFIC HAZARD","126 RAMPART DR","",""
"11/03/2018","20:52","218CR0028419","TRAFFIC HAZARD","TRAFFIC HAZARD","","",""
"11/03/2018","21:06","218CR0028420","DISTURBANCE","DISTURBANCE","320 W BROADWAY #C","",""
"11/03/2018","21:27","218CR0028421","DISTURBANCE-NOISE","DISTURBANCE-NOISE","1015 W PORPHRY","",""
"11/03/2018","21:36","218CR0028422","THEFT","THEFT, SHOPLIFT","3901 HARRISON AVE","",""
"11/03/2018","21:44","218CR0028423","ASSAULT","PFMA - MINOR INJ/PHYSICAL CONT","4002 HANCOCK","",""
"11/03/2018","21:58","218CR0028424","UNWANTED PERSON","UNWANTED PERSON","************","",""
"11/03/2018","22:32","218CR0028425","SUSPICIOUS ACTIVITY","SUSPICIOUS ACTIVITY","1955 DEWEY BLVD","",""
"11/03/2018","23:15","218CR0028426","THEFT","THEFT FROM MOTOR VEHICLE","122005 NISSLER RD","",""
"11/03/2018","23:24","218CR0028427","SUSPICIOUS ACTIVITY","SUSPICIOUS ACTIVITY","2038 WALNUT","",""
"11/03/2018","23:27","218CR0028428","ACCIDENT","ACCIDENT","900 BLK OF COPPER","",""
"11/03/2018","23:47","218CR0028429","SUSPICIOUS ACTIVITY","SUSPICIOUS ACTIVITY","GALENA RICHEST HILL CASINO","",""
"11/04/2018","00:02","218CR0028430","HARASSMENT","HARASSMENT","120 1/2 N IDAHO","",""
"11/04/2018","00:51","218CR0028431","THEFT","BURGLARY, RESIDENCE","2290 COBBAN #3","",""
"11/04/2018","01:01","218CR0028432","SUSPICIOUS ACTIVITY","SUSPICIOUS ACTIVITY","2100 CONTINENTAL","",""
"11/04/2018","01:09","218CR0028433","SUSPICIOUS ACTIVITY","SUSPICIOUS ACTIVITY","HOLLAND AND MONTANA","",""
"11/04/2018","01:11","218CR0028434","MEDICAL - EMERGENCY","MEDICAL - EMERGENCY","436 S MAIN ST APT 408","",""
"11/04/2018","01:18","218CR0028435","SUSPICIOUS ACTIVITY","SUSPICIOUS ACTIVITY","531 1/2 S DAKOTA","",""
"11/04/2018","01:26","218CR0028436","THEFT","THEFT","225 N ALASKA","",""
"11/04/2018","01:41","218CR0028437","SUSPICIOUS ACTIVITY","SUSPICIOUS ACTIVITY","835 9TH ST","",""
"11/04/2018","02:08","218CR0028438","ALL OTHER","CRIMINAL TRESPASS TO PROPERTY","735 13TH ST","ARREST(s) MADE",""
"11/04/2018","02:34","218CR0028439","HAZ MAT","HAZ MAT","ROCKER TOWN PUMP","",""
"11/04/2018","02:48","218CR0028440","THEFT","THEFT, ALL OTHERS","2290 COBBAN ST #3","",""
"11/04/2018","03:08","218CR0028441","ACCIDENT - INJURY","ACCIDENT - INJURY","4100 EAST LAKE STREET","",""
"11/04/2018","04:40","218CR0028442","ALL OTHER","ALL OTHER","100 GARDENS WAY #149","",""
"11/04/2018","05:03","218CR0028443","SUSPICIOUS ACTIVITY","SUSPICIOUS ACTIVITY","969 N MAIN ST","",""
"11/04/2018","06:17","218CR0028444","UNWANTED PERSON","UNWANTED PERSON","************","",""
"11/04/2018","06:24","218CR0028445","FIRE - STRUCTURE","FIRE - STRUCTURE","108 MULLIN ST","",""
"11/04/2018","06:42","218CR0028446","MEDICAL - EMERGENCY","MEDICAL - EMERGENCY","43 TRANQUILITY LANE","",""
"11/04/2018","07:18","218CR0028447","THEFT","THEFT FROM MOTOR VEHICLE","3125 QUINCY ST","",""
"11/04/2018","07:22","218CR0028448","MEDICAL - ASSIST","MEDICAL - ASSIST","************","",""
"11/04/2018","08:07","218CR0028449","CIVIL PAPER SERVICE","CIVIL PAPER SERVICE","2825 FARRAGUT AVE APT D202","",""
"11/04/2018","08:11","218CR0028450","BUSINESS CHECK","BUSINESS CHECK","58 W PARK","",""
"11/04/2018","08:34","218CR0028451","CIVIL PAPER SERVICE","CIVIL PAPER SERVICE","815 13TH ST","",""
"11/04/2018","08:39","218CR0028452","THEFT","THEFT FROM MOTOR VEHICLE","ECONO LODGE 122005 NISSLER RD","",""
"11/04/2018","08:41","218CR0028453","CIVIL PAPER SERVICE","CIVIL PAPER SERVICE","208 OHIO","",""
"11/04/2018","08:46","218CR0028454","ASSIST OTHER AGENCY","ASSIST OTHER AGENCY","I90 EB MM236","",""
"11/04/2018","09:05","218CR0028455","VANDALISM/CRIMINAL MISCHIEF","VANDALISM/CRIMINAL MISCHIEF","2921 BUSCH ST","",""
"11/04/2018","09:07","218CR0028456","ALARM - BURGLARY","ALARM - BURGLARY","************","",""
"11/04/2018","11:27","218CR0028457","SEXUAL ASSAULT","SEXUAL ASSAULT","************","",""
"11/04/2018","11:54","218CR0028458","TRAFFIC HAZARD","TRAFFIC HAZARD","36 E CENTER","",""
"11/04/2018","11:59","218CR0028459","SUSPICIOUS ACTIVITY","SUSPICIOUS ACTIVITY","FRONT AND HARRISON","",""
"11/04/2018","12:16","218CR0028460","ACCIDENT","ACCIDENT","2700 BLK HARRISON AVE","",""
"11/04/2018","12:19","218CR0028461","BUSINESS CHECK","BUSINESS CHECK","531 S MONTANA","",""
"11/04/2018","12:38","218CR0028462","DISTURBANCE","DISTURBANCE","1919 S ARIZONA","",""
"11/04/2018","12:39","218CR0028463","SUSPICIOUS ACTIVITY","SUSPICIOUS ACTIVITY","BUSCH AND GILMAN","",""
"11/04/2018","12:44","218CR0028464","BURGLARY","THEFT OF VEHICLE PARTS/ACCESSO","3938 IRIS RIDGE","",""
"11/04/2018","12:46","218CR0028465","ASSAULT","ASSAULT","************","",""
"11/04/2018","12:55","218CR0028466","SUICIDE ATTEMPT/THREAT","SUICIDE ATTEMPT/THREAT","************","",""
"11/04/2018","13:21","218CR0028467","CIVIL PAPER SERVICE","CIVIL PAPER SERVICE","665 S WASHINGTON","",""
"11/04/2018","13:28","218CR0028468","THEFT","THEFT FROM MOTOR VEHICLE","2706 NETTIE","",""
"11/04/2018","13:38","218CR0028469","UNWANTED PERSON","UNWANTED PERSON","************","",""
"11/04/2018","13:44","218CR0028470","WELFARE CHECK","WELFARE CHECK","831 W ZARELDA ST","",""
"11/04/2018","14:26","218CR0028471","T/S","OPERATING WITHOUT CURRENT REGI","PARK AND ALABAMA","",""
"11/04/2018","14:41","218CR0028472","ACCIDENT- INJURY(MHP)","ACCIDENT- INJURY(MHP)","1059 CAMCREEK RD","",""
"11/04/2018","14:48","218CR0028473","ALL OTHER","ALL OTHER","MINERS HOTEL 53 W PARK","",""
"11/04/2018","14:49","218CR0028474","THEFT","THEFT","418 W QUARTZ","",""
"11/04/2018","15:01","218CR0028475","UNWANTED PERSON","POSSESSION OF DANGEROUS DRUGS","531 S MONTANA","ARREST(s) MADE",""
"11/04/2018","15:22","218CR0028476","ACCIDENT","DUI - (REFUSAL)","PARK AND EXCLESIOR","ARREST(s) MADE",""
"11/04/2018","15:38","218CR0028477","BURGLARY","BURGLARY, RESIDENCE","100 LAUREL RD","",""
"11/04/2018","15:44","218CR0028478","JUVENILE MISC","JUVENILE MISC","************","",""
"11/04/2018","15:57","218CR0028479","FRAUD","FORGERY/COUNTERFEIT","310 W FRONT","",""
"11/04/2018","16:34","218CR0028480","UNKNOWN PROBLEM","UNKNOWN PROBLEM","1811 PORTER AVE","",""
"11/04/2018","17:05","218CR0028481","FOUND PROPERTY","FOUND PROPERTY","************","",""
"11/04/2018","17:41","218CR0028482","SUSPICIOUS ACTIVITY","SUSPICIOUS ACTIVITY","2929 JOSEPHINE","",""
"11/04/2018","18:09","218CR0028484","ALL OTHER","ALL OTHER","BERKELEY PIT VIEWING STAND","",""
"11/04/2018","18:13","218CR0028485","HARASSMENT","HARASSMENT","305 S OHIO","",""
"11/04/2018","18:32","218CR0028486","SUSPICIOUS ACTIVITY","SUSPICIOUS ACTIVITY","HOLMES AND HILL","",""
"11/04/2018","18:54","218CR0028487","THEFT","THEFT, ALL OTHERS","1900 S MONTANA","",""
"11/04/2018","18:58","218CR0028488","LED BUSINESS","LED BUSINESS","ST JAMES ER","",""
"11/04/2018","19:01","218CR0028489","ALL OTHER","ALL OTHER","246 E MERCURY","",""
"11/04/2018","19:06","218CR0028490","HARASSMENT","HARASSMENT","3200 DEXTER","",""
"11/04/2018","20:00","218CR0028491","SUSPICIOUS ACTIVITY","SUSPICIOUS ACTIVITY","207 E PACIFIC","",""
"11/04/2018","20:11","218CR0028492","SUSPICIOUS ACTIVITY","SUSPICIOUS ACTIVITY","ADAMS ST AND FARRELL ST","",""
"11/04/2018","20:15","218CR0028493","ANIMAL COMPLAINT","ANIMAL COMPLAINT","2647 GOODWIN ST","",""
"11/04/2018","20:18","218CR0028494","T/S","SPEEDING","2900 BLK HARRISON AVE","",""
"11/04/2018","21:08","218CR0028495","MEDICAL - EMERGENCY","MEDICAL - EMERGENCY","721 UTAH ALANO CLUB","",""
"11/04/2018","21:12","218CR0028496","DISTURBANCE","DISTURBANCE","2031 ABERDEEN","",""
"11/04/2018","21:38","218CR0028497","MEDICAL - EMERGENCY","MEDICAL - EMERGENCY","3116 PAXSON","",""
"11/04/2018","21:58","218CR0028498","THEFT","THEFT, ALL OTHERS","1370 HARRISON","",""
"11/04/2018","22:13","218CR0028499","THEFT","THEFT, ALL OTHERS","2201 WALL","",""
"11/04/2018","22:18","218CR0028500","T/S","SPEEDING","CHULA AND ROWE RD","",""
"11/04/2018","22:42","218CR0028501","T/S","T/S","OTTAWA ST AND GLADSTONE ST","",""
"11/04/2018","23:16","218CR0028502","T/S","SPEEDING","2821 LEXINGTON AVE","",""
"11/04/2018","23:17","218CR0028503","ACCIDENT","ACCIDENT","1716 HARRISON AVE","",""
"11/04/2018","23:32","218CR0028504","ATL","ATL","2720 PINE ST","",""
"11/04/2018","23:46","218CR0028505","WELFARE CHECK","WELFARE CHECK","205 NEVERSWEAT","",""
"11/04/2018","23:47","218CR0028506","T/S","T/S","HOWARD AND AMHERST","",""
"11/05/2018","00:05","218CR0028507","MEDICAL - EMERGENCY","MEDICAL - EMERGENCY","1111 SILVER BOW HOMES","",""
"11/05/2018","00:12","218CR0028508","SUSPICIOUS ACTIVITY","SUSPICIOUS ACTIVITY","1960 HARRISON AVE TACO JOHNS","",""
"11/05/2018","00:15","218CR0028509","ALARM - BURGLARY","ALARM - BURGLARY","************","",""
"11/05/2018","00:35","218CR0028510","SUSPICIOUS ACTIVITY","SUSPICIOUS ACTIVITY","1814 ADAMS","",""
"11/05/2018","00:51","218CR0028512","SUSPICIOUS ACTIVITY","SUSPICIOUS ACTIVITY","LAFAYETTE AND ELM","",""
"11/05/2018","00:51","218CR0028511","SUSPICIOUS ACTIVITY","SUSPICIOUS ACTIVITY","GRAND AND HARRISON","",""
"11/05/2018","00:57","218CR0028513","T/S","T/S","ADAM AND FARRELL","",""
"11/05/2018","01:15","218CR0028514","BUSINESS CHECK","BUSINESS CHECK","531 S MONTANA","",""
"11/05/2018","02:05","218CR0028515","SUSPICIOUS ACTIVITY","SUSPICIOUS ACTIVITY","2ND ST AND UTAH AVE","",""
"11/05/2018","02:09","218CR0028516","SUSPICIOUS ACTIVITY","SUSPICIOUS ACTIVITY","2600 BLK AMHERST","",""
"11/05/2018","04:58","218CR0028517","SUSPICIOUS ACTIVITY","SUSPICIOUS ACTIVITY","HILL AVE AND EVANS","",""
"11/05/2018","05:11","218CR0028518","CITIZEN AID","CITIZEN AID","I15 MM 111 NB","",""
"11/05/2018","06:18","218CR0028519","MEDICAL - EMERGENCY","MEDICAL - EMERGENCY","1125 S MAIN ST","",""
"11/05/2018","06:23","218CR0028520","VANDALISM/CRIMINAL MISCHIEF","VANDALISM/CRIMINAL MISCHIEF","1407 SUNRISE LN","",""
"11/05/2018","06:49","218CR0028521","CITIZEN AID","CITIZEN AID","1631 SAMPSON ST","",""
"11/05/2018","07:34","218CR0028523","CIVIL PAPER SERVICE","CIVIL PAPER SERVICE","309 W DALY","",""
 

BSB police report for November 2, 2018

"11/01/2018","00:21","218CR0028167","T/S","T/S","COPPER AND MAIN","",""
"11/01/2018","00:27","218CR0028168","BUSINESS CHECK","BUSINESS CHECK","1370 HARRISON AVE TOWN PUMP","",""
"11/01/2018","00:55","218CR0028169","SUSPICIOUS ACTIVITY","SUSPICIOUS ACTIVITY","FRONT AND DELAWARE","",""
"11/01/2018","00:55","218CR0028170","SUSPICIOUS ACTIVITY","SUSPICIOUS ACTIVITY","1828 B ST","",""
"11/01/2018","01:30","218CR0028171","T/S","NO LIABILITY INSURANCE IN EFF.","PLATINUM AND MONTANA","",""
"11/01/2018","02:11","218CR0028172","DISTURBANCE","DISTURBANCE","1 W PARK PARK ST PARTY PALACE","",""
"11/01/2018","02:14","218CR0028173","BUSINESS CHECK","BUSINESS CHECK","531 S MONTANA TOWN PUMP","",""
"11/01/2018","02:17","218CR0028174","DISTURBANCE","DISTURBANCE","1620 N MAIN ST","",""
"11/01/2018","02:30","218CR0028175","DISTURBANCE","DISTURBANCE","667 S WASHINGTON","",""
"11/01/2018","02:39","218CR0028176","BUSINESS CHECK","BUSINESS CHECK","58 W PARK ST PARKING GARAGE","",""
"11/01/2018","02:56","218CR0028177","SUSPICIOUS ACTIVITY","SUSPICIOUS ACTIVITY","CENTENNIAL NEAR RR TRACKS","",""
"11/01/2018","03:23","218CR0028178","SUSPICIOUS ACTIVITY","SUSPICIOUS ACTIVITY","715 E 2ND ST","",""
"11/01/2018","03:34","218CR0028179","DISTURBANCE","DISTURBANCE","1046 CALIFORNIA","",""
"11/01/2018","03:59","218CR0028180","THEFT","THEFT, SHOPLIFT","531 S MONTANA","",""
"11/01/2018","04:07","218CR0028181","SUICIDE ATTEMPT/THREAT","SUICIDE ATTEMPT/THREAT","************","",""
"11/01/2018","05:16","218CR0028182","UNWANTED PERSON","UNWANTED PERSON","************","",""
"11/01/2018","05:33","218CR0028183","ASSIST OTHER AGENCY","ASSIST OTHER AGENCY","BUTTE AREA","",""
"11/01/2018","05:36","218CR0028184","SUSPICIOUS ACTIVITY","SUSPICIOUS ACTIVITY","COLORADO AND PLATINUM","",""
"11/01/2018","06:37","218CR0028185","SUSPICIOUS ACTIVITY","SUSPICIOUS ACTIVITY","ADAMS AND LOCUST","",""
"11/01/2018","06:42","218CR0028186","T/S","T/S","ARIZONA ST","",""
"11/01/2018","06:43","218CR0028187","ALARM - ROBBERY","ALARM - ROBBERY","848 W PARK ST","",""
"11/01/2018","07:02","218CR0028188","TRAFFIC","TRAFFIC","GRAND AVE AND WILSON ST","",""
"11/01/2018","07:06","218CR0028189","THEFT","THEFT, ALL OTHERS","301 W GRANITE","",""
"11/01/2018","07:44","218CR0028190","SUSPICIOUS ACTIVITY","SUSPICIOUS ACTIVITY","1301 FOUR MILE RD","",""
"11/01/2018","08:09","218CR0028191","CIVIL PAPER SERVICE","CIVIL PAPER SERVICE","2124 OREGON AVE","",""
"11/01/2018","08:10","218CR0028192","FIRE- GAS ODOR","FIRE- GAS ODOR","2700 HARRISON","",""
"11/01/2018","08:19","218CR0028193","T/S","T/S","HOLMES AND WARREN","",""
"11/01/2018","08:19","218CR0028194","BUSINESS CHECK","BUSINESS CHECK","58 W PARK ST PARKING GARAGE","",""
"11/01/2018","08:20","218CR0028195","SUSPICIOUS ACTIVITY","UNLAWFUL POSSESSION OF FIREARM","400 BLK BROWNS GULCH","ARREST(s) MADE",""
"11/01/2018","08:21","218CR0028196","SUSPICIOUS ACTIVITY","SUSPICIOUS ACTIVITY","1100 GRIZZLY TRAIL","",""
"11/01/2018","08:25","218CR0028197","MEDICAL - EMERGENCY","MEDICAL - EMERGENCY","300 HOLMES AVE","",""
"11/01/2018","08:28","218CR0028198","THEFT","THEFT","1620 N MAIN","",""
"11/01/2018","08:29","218CR0028199","BUSINESS CHECK","BUSINESS CHECK","58 W PARK ST PARKING GARAGE","",""
"11/01/2018","08:47","218CR0028200","DETENTION BUSINESS","DETENTION BUSINESS","************","",""
"11/01/2018","09:05","218CR0028201","THEFT","THEFT FROM MOTOR VEHICLE","1635 CIVIC CENTER RD","",""
"11/01/2018","09:22","218CR0028202","WANTED PERSON","WANTED PERSON","************","",""
"11/01/2018","09:33","218CR0028203","ALARM - BURGLARY","ALARM - BURGLARY","************","",""
"11/01/2018","09:45","218CR0028204","CIVIL PAPER SERVICE","CIVIL PAPER SERVICE","208 N CLARK","",""
"11/01/2018","10:04","218CR0028205","SUSPICIOUS ACTIVITY","SUSPICIOUS ACTIVITY","1142 HOBSON","",""
"11/01/2018","10:07","218CR0028206","T/S","T/S","STUART AND FARRELL","",""
"11/01/2018","10:16","218CR0028207","RESTRAINING ORDER VIOLATION","RESTRAINING ORDER VIOLATION","************","",""
"11/01/2018","10:18","218CR0028208","CIVIL PAPER SERVICE","CIVIL PAPER SERVICE","2510 PARROT ST","",""
"11/01/2018","10:29","218CR0028209","SUSPICIOUS ACTIVITY","SUSPICIOUS ACTIVITY","206 W BROADWAY","",""
"11/01/2018","10:55","218CR0028210","CIVIL PAPER SERVICE","CIVIL PAPER SERVICE","435 S CRYSTAL","",""
"11/01/2018","11:00","218CR0028211","JUVENILE MISC","JUVENILE MISC","************","",""
"11/01/2018","11:05","218CR0028212","ABANDONED VEHICLE","ABANDONED VEHICLE","1100 BLK HOBSON","",""
"11/01/2018","11:15","218CR0028213","SUSPICIOUS ACTIVITY","SUSPICIOUS ACTIVITY","505 CENTENNIAL","",""
"11/01/2018","11:27","218CR0028214","BUSINESS CHECK","BUSINESS CHECK","3700 HARRISON","",""
"11/01/2018","11:32","218CR0028215","WELFARE CHECK","WELFARE CHECK","205 W GRANITE","",""
"11/01/2018","11:38","218CR0028216","MEDICAL - EMERGENCY","MEDICAL - EMERGENCY","MONTANA AND SILVER","",""
"11/01/2018","11:57","218CR0028217","ALARM - MEDICAL","ALARM - MEDICAL","************","",""
"11/01/2018","12:28","218CR0028218","CIVIL STANDBY","CIVIL STANDBY","S WARREN AND BROWNING","",""
"11/01/2018","12:31","218CR0028219","CIVIL STANDBY","CIVIL STANDBY","1111 W WOOLMAN","",""
"11/01/2018","12:42","218CR0028221","WELFARE CHECK","WELFARE CHECK","810 SILVER BOW HOMES","",""
"11/01/2018","12:43","218CR0028220","DETENTION BUSINESS","DETENTION BUSINESS","************","",""
"11/01/2018","12:48","218CR0028222","UNWANTED PERSON","UNWANTED PERSON","************","",""
"11/01/2018","12:49","218CR0028223","MEDICAL - EMERGENCY","MEDICAL - EMERGENCY","180 TRINITY LOOP","",""
"11/01/2018","13:01","218CR0028224","DETENTION BUSINESS","DETENTION BUSINESS","************","",""
"11/01/2018","13:20","218CR0028225","TRAFFIC HAZARD","TRAFFIC HAZARD","2ND ST AND MONTANA ST","",""
"11/01/2018","13:22","218CR0028226","JUVENILE MISC","JUVENILE MISC","************","",""
"11/01/2018","13:27","218CR0028227","TRAFFIC","TRAFFIC","714 KENWOOD AVE","",""
"11/01/2018","14:10","218CR0028228","MEDICAL - EMERGENCY","MEDICAL - EMERGENCY","155 W QUARTZ","",""
"11/01/2018","14:10","218CR0028229","ALARM - BURGLARY","ALARM - BURGLARY","************","",""
"11/01/2018","14:26","218CR0028230","LED BUSINESS","LED BUSINESS","400 S CLARK ST","",""
"11/01/2018","14:35","218CR0028231","THEFT","THEFT","1301 HARRISON AVE","",""
"11/01/2018","14:38","218CR0028232","WELFARE CHECK","WELFARE CHECK","1129 ATLANTIC","",""
"11/01/2018","14:48","218CR0028233","ATL","ATL","ARIZONA ST AND PARK ST","",""
"11/01/2018","15:14","218CR0028234","ALL OTHER","THEFT FROM MOTOR VEHICLE","119800 RICK JONES WY","",""
"11/01/2018","15:17","218CR0028235","ATL","ATL","AMHERST ST AND HARRISON AVE","",""
"11/01/2018","15:24","218CR0028237","THEFT","THEFT","845 S WYOMING ST","",""
"11/01/2018","15:30","218CR0028238","UNKNOWN PROBLEM","UNKNOWN PROBLEM","722 S COLORADO ST","",""
"11/01/2018","15:38","218CR0028239","ALL OTHER","ALL OTHER","600 S MAIN STREET","",""
"11/01/2018","15:58","218CR0028240","HARASSMENT","HARASSMENT","816 W DIAMOND","",""
"11/01/2018","16:02","218CR0028241","THEFT","THEFT","407 W MERCURY","",""
"11/01/2018","16:07","218CR0028242","SUSPICIOUS ACTIVITY","SUSPICIOUS ACTIVITY","ALABAMA ST AND COPPER ST","",""
"11/01/2018","16:51","218CR0028243","UNWANTED PERSON","UNWANTED PERSON","************","",""
"11/01/2018","16:53","218CR0028244","UNKNOWN PROBLEM","CRIMINAL TRESPASS TO PROPERTY","938 CALIFORNIA","ARREST(s) MADE",""
"11/01/2018","16:57","218CR0028245","ACCIDENT","CARELESS DRIVING","2800 HARRISON AVE","",""
"11/01/2018","17:18","218CR0028246","UNWANTED PERSON","UNWANTED PERSON","************","",""
"11/01/2018","17:46","218CR0028247","ALL OTHER","ALL OTHER","812 SILVER BOW HOMES","",""
"11/01/2018","17:50","218CR0028248","LED BUSINESS","LED BUSINESS","1621 THORNTON AVE","",""
"11/01/2018","17:55","218CR0028249","HARASSMENT","HARASSMENT","431 W SILVER ST","",""
"11/01/2018","18:46","218CR0028250","FOUND PROPERTY","FOUND PROPERTY","************","",""
"11/01/2018","18:46","218CR0028251","T/S","T/S @ GRAND AND FARRAGUT","GRAND AND FARRAGUT","",""
"11/01/2018","18:47","218CR0028252","ASSIST OTHER AGENCY","ASSIST OTHER AGENCY","","",""
"11/01/2018","18:59","218CR0028253","BUSINESS CHECK","BUSINESS CHECK","58 W PARK ST PARKING GARAGE","",""
"11/01/2018","19:08","218CR0028254","FIRE - STRUCTURE","FIRE - STRUCTURE","301 E MERCURY ST","",""
"11/01/2018","19:09","218CR0028255","T/S","T/S","CHICAGO AND SHIELDS","",""
"11/01/2018","19:17","218CR0028256","T/S","T/S","CIVIC CENTER RD","",""
"11/01/2018","19:44","218CR0028257","SUICIDE ATTEMPT/THREAT","SUICIDE ATTEMPT/THREAT","************","",""
"11/01/2018","19:56","218CR0028258","MEDICAL - EMERGENCY","MEDICAL - EMERGENCY","1125 S MAIN # 107","",""
"11/01/2018","20:21","218CR0028259","DRUGS","DRUGS","************","",""
"11/01/2018","21:06","218CR0028260","INTOXICATED PERSON","INTOXICATED PERSON","EXCEL & PARK","",""
"11/01/2018","21:09","218CR0028261","JUVENILE MISC","JUVENILE MISC","************","",""
"11/01/2018","21:27","218CR0028262","UNWANTED PERSON","PFMA - REASONABLE APPREHENSION","936 NEVADA","ARREST(s) MADE",""
"11/01/2018","21:44","218CR0028263","UNWANTED PERSON","UNWANTED PERSON","************","",""
"11/01/2018","23:11","218CR0028264","CRIMINAL TRESPASS","CRIMINAL TRESPASS","3901 HARRISON AVE","",""
"11/01/2018","23:27","218CR0028265","UNWANTED PERSON","UNWANTED PERSON","************","",""
"11/02/2018","00:01","218CR0028266","SEXUAL ASSAULT","SEXUAL ASSAULT","************","",""
"11/02/2018","00:17","218CR0028267","ATL","ATL","24 E COPPER","",""
"11/02/2018","00:39","218CR0028268","DISTURBANCE","DISTURBANCE","541 S MONTANA SPUD MCGEES","",""
"11/02/2018","00:42","218CR0028269","DUI","AGGRAVATED DUI","2112 GRAND AVE","ARREST(s) MADE",""
"11/02/2018","00:47","218CR0028270","DISTURBANCE","CRIMINAL CONTEMPT","541 S MAIN SPUD MCGEES","ARREST(s) MADE",""
"11/02/2018","01:53","218CR0028271","ILLEGAL SHOOTING","ILLEGAL SHOOTING","31 E GAGNON ST","",""
"11/02/2018","03:44","218CR0028272","MEDICAL - EMERGENCY","MEDICAL - EMERGENCY","812 SILVERBOW HOMES","",""
"11/02/2018","04:11","218CR0028273","SUSPICIOUS ACTIVITY","SUSPICIOUS ACTIVITY","2925 HANSEN RD","",""
"11/02/2018","04:35","218CR0028274","OPEN BUILDING","OPEN BUILDING","2937 HANSEN RD","",""
"11/02/2018","05:29","218CR0028275","SUSPICIOUS ACTIVITY","SUSPICIOUS ACTIVITY","CONTINENTAL DR AND BAYARD ST","",""
"11/02/2018","06:35","218CR0028276","THEFT","THEFT, SHOPLIFT","531 S MONTANA","",""
"11/02/2018","07:18","218CR0028277","ANIMAL COMPLAINT","ANIMAL COMPLAINT","BARTLETT // ASPEN LOOP","",""
 

Subcategories

Friday the 16th. Affiliate Marketing.
Copyright 2012

©